2016 Cux-Wetter.de -Die Nutzung der Wetterdaten nur mit ausdrcklicher Genehmigung
Wetterdaten: Dienstag, 17.01.2017
Datum Zeit Temp. A. Feuchte A. Luftdruck Regen Wind Richtung Richtung Sonnenschein Solar Taupunkt Windchill Windben
17.01.2017 00:00 -1,8 C 95 % 1032,6 hPa 0,0 l/m 2,6 km/h (1 Bft) NO 40 0 min 0 W/m -2,5 C -1,8 C 4,8 km/h (1 Bft)
17.01.2017 00:03 -1,7 C 95 % 1032,6 hPa 0,0 l/m 2,8 km/h (1 Bft) N-NO 26 0 min 0 W/m -2,4 C -1,7 C 6,4 km/h (2 Bft)
17.01.2017 00:06 -1,8 C 95 % 1032,6 hPa 0,0 l/m 2,7 km/h (1 Bft) N-NW 340 0 min 0 W/m -2,5 C -1,8 C 8,0 km/h (2 Bft)
17.01.2017 00:09 -1,8 C 94 % 1032,6 hPa 0,0 l/m 2,5 km/h (1 Bft) N-NW 343 0 min 0 W/m -2,6 C -1,8 C 4,8 km/h (1 Bft)
17.01.2017 00:12 -1,8 C 94 % 1032,6 hPa 0,0 l/m 1,8 km/h (1 Bft) N-NW 343 0 min 0 W/m -2,6 C -1,8 C 3,2 km/h (1 Bft)
17.01.2017 00:15 -1,8 C 94 % 1032,6 hPa 0,0 l/m 3,7 km/h (1 Bft) N-NW 339 0 min 0 W/m -2,6 C -1,8 C 6,4 km/h (2 Bft)
17.01.2017 00:18 -1,9 C 94 % 1032,7 hPa 0,0 l/m 1,9 km/h (1 Bft) N-NW 340 0 min 0 W/m -2,7 C -1,9 C 3,2 km/h (1 Bft)
17.01.2017 00:21 -2,0 C 94 % 1032,7 hPa 0,0 l/m 2,1 km/h (1 Bft) N-NW 333 0 min 0 W/m -2,8 C -2,0 C 4,8 km/h (1 Bft)
17.01.2017 00:24 -2,1 C 94 % 1032,7 hPa 0,0 l/m 2,3 km/h (1 Bft) N-NW 332 0 min 0 W/m -2,9 C -2,1 C 6,4 km/h (2 Bft)
17.01.2017 00:27 -1,9 C 95 % 1032,8 hPa 0,0 l/m 3,0 km/h (1 Bft) NW 313 0 min 0 W/m -2,6 C -1,9 C 6,4 km/h (2 Bft)
17.01.2017 00:30 -1,8 C 94 % 1032,8 hPa 0,0 l/m 3,4 km/h (1 Bft) N-NW 344 0 min 0 W/m -2,6 C -1,8 C 9,7 km/h (2 Bft)
17.01.2017 00:33 -1,8 C 94 % 1032,7 hPa 0,0 l/m 2,5 km/h (1 Bft) N-NW 344 0 min 0 W/m -2,6 C -1,8 C 4,8 km/h (1 Bft)
17.01.2017 00:36 -1,9 C 94 % 1032,8 hPa 0,0 l/m 2,0 km/h (1 Bft) N-NW 344 0 min 0 W/m -2,7 C -1,9 C 4,8 km/h (1 Bft)
17.01.2017 00:39 -2,1 C 94 % 1032,8 hPa 0,0 l/m 1,9 km/h (1 Bft) N-NW 344 0 min 0 W/m -2,9 C -2,1 C 3,2 km/h (1 Bft)
17.01.2017 00:42 -2,2 C 94 % 1032,8 hPa 0,0 l/m 2,5 km/h (1 Bft) N-NO 17 0 min 0 W/m -3,0 C -2,2 C 4,8 km/h (1 Bft)
17.01.2017 00:45 -2,3 C 94 % 1032,8 hPa 0,0 l/m 2,2 km/h (1 Bft) N-NO 14 0 min 0 W/m -3,1 C -2,3 C 3,2 km/h (1 Bft)
17.01.2017 00:48 -2,3 C 94 % 1032,8 hPa 0,0 l/m 1,8 km/h (1 Bft) N-NO 14 0 min 0 W/m -3,1 C -2,3 C 3,2 km/h (1 Bft)
17.01.2017 00:51 -2,3 C 94 % 1032,9 hPa 0,0 l/m 2,5 km/h (1 Bft) N-NO 19 0 min 0 W/m -3,1 C -2,3 C 6,4 km/h (2 Bft)
17.01.2017 00:54 -2,3 C 94 % 1032,9 hPa 0,0 l/m 2,8 km/h (1 Bft) N 360 0 min 0 W/m -3,1 C -2,3 C 6,4 km/h (2 Bft)
17.01.2017 00:57 -2,3 C 94 % 1032,9 hPa 0,0 l/m 0,9 km/h (0 Bft) N 360 0 min 0 W/m -3,1 C -2,3 C 3,2 km/h (1 Bft)
17.01.2017 01:00 -2,3 C 94 % 1032,9 hPa 0,0 l/m 1,8 km/h (1 Bft) N 355 0 min 0 W/m -3,1 C -2,3 C 4,8 km/h (1 Bft)
17.01.2017 01:03 -2,4 C 94 % 1032,9 hPa 0,0 l/m 1,9 km/h (1 Bft) N 355 0 min 0 W/m -3,2 C -2,4 C 4,8 km/h (1 Bft)
17.01.2017 01:06 -2,4 C 94 % 1032,9 hPa 0,0 l/m 1,6 km/h (1 Bft) N-NO 26 0 min 0 W/m -3,2 C -2,4 C 6,4 km/h (2 Bft)
17.01.2017 01:09 -2,4 C 94 % 1032,9 hPa 0,0 l/m 1,2 km/h (1 Bft) N-NO 26 0 min 0 W/m -3,2 C -2,4 C 3,2 km/h (1 Bft)
17.01.2017 01:12 -2,4 C 94 % 1032,9 hPa 0,0 l/m 2,6 km/h (1 Bft) N 355 0 min 0 W/m -3,2 C -2,4 C 6,4 km/h (2 Bft)
17.01.2017 01:15 -2,3 C 94 % 1032,8 hPa 0,0 l/m 3,0 km/h (1 Bft) N-NW 344 0 min 0 W/m -3,1 C -2,3 C 6,4 km/h (2 Bft)
17.01.2017 01:18 -2,3 C 94 % 1032,8 hPa 0,0 l/m 2,4 km/h (1 Bft) N-NW 344 0 min 0 W/m -3,1 C -2,3 C 4,8 km/h (1 Bft)
17.01.2017 01:21 -2,2 C 94 % 1032,8 hPa 0,0 l/m 2,1 km/h (1 Bft) N-NW 344 0 min 0 W/m -3,0 C -2,2 C 4,8 km/h (1 Bft)
17.01.2017 01:24 -2,3 C 94 % 1032,9 hPa 0,0 l/m 2,2 km/h (1 Bft) N-NO 15 0 min 0 W/m -3,1 C -2,3 C 6,4 km/h (2 Bft)
17.01.2017 01:27 -2,2 C 94 % 1032,9 hPa 0,0 l/m 2,5 km/h (1 Bft) O-NO 78 0 min 0 W/m -3,0 C -2,2 C 4,8 km/h (1 Bft)
17.01.2017 01:30 -2,2 C 94 % 1032,9 hPa 0,0 l/m 2,8 km/h (1 Bft) N 9 0 min 0 W/m -3,0 C -2,2 C 8,0 km/h (2 Bft)
17.01.2017 01:33 -2,1 C 94 % 1032,9 hPa 0,0 l/m 2,8 km/h (1 Bft) N 9 0 min 0 W/m -2,9 C -2,1 C 4,8 km/h (1 Bft)
17.01.2017 01:36 -1,9 C 94 % 1032,9 hPa 0,0 l/m 2,6 km/h (1 Bft) N-NO 19 0 min 0 W/m -2,7 C -1,9 C 4,8 km/h (1 Bft)
17.01.2017 01:39 -1,9 C 94 % 1033,0 hPa 0,0 l/m 2,5 km/h (1 Bft) N-NO 17 0 min 0 W/m -2,7 C -1,9 C 4,8 km/h (1 Bft)
17.01.2017 01:42 -1,9 C 94 % 1033,0 hPa 0,0 l/m 3,0 km/h (1 Bft) N-NW 336 0 min 0 W/m -2,7 C -1,9 C 6,4 km/h (2 Bft)
17.01.2017 01:45 -1,9 C 94 % 1033,1 hPa 0,0 l/m 3,3 km/h (1 Bft) N 5 0 min 0 W/m -2,7 C -1,9 C 6,4 km/h (2 Bft)
17.01.2017 01:48 -1,8 C 94 % 1033,1 hPa 0,0 l/m 3,1 km/h (1 Bft) N 355 0 min 0 W/m -2,6 C -1,8 C 6,4 km/h (2 Bft)
17.01.2017 01:51 -1,6 C 94 % 1033,1 hPa 0,0 l/m 3,8 km/h (1 Bft) N 351 0 min 0 W/m -2,4 C -1,6 C 8,0 km/h (2 Bft)
17.01.2017 01:54 -1,5 C 94 % 1033,1 hPa 0,0 l/m 3,3 km/h (1 Bft) N-NW 338 0 min 0 W/m -2,3 C -1,5 C 8,0 km/h (2 Bft)
17.01.2017 01:57 -1,4 C 94 % 1033,1 hPa 0,0 l/m 3,1 km/h (1 Bft) N 351 0 min 0 W/m -2,2 C -1,4 C 6,4 km/h (2 Bft)
17.01.2017 02:00 -1,4 C 93 % 1033,1 hPa 0,0 l/m 3,5 km/h (1 Bft) N 10 0 min 0 W/m -2,4 C -1,4 C 6,4 km/h (2 Bft)
17.01.2017 02:03 -1,4 C 93 % 1033,2 hPa 0,0 l/m 2,8 km/h (1 Bft) N 5 0 min 0 W/m -2,4 C -1,4 C 4,8 km/h (1 Bft)
17.01.2017 02:06 -1,3 C 93 % 1033,2 hPa 0,0 l/m 2,9 km/h (1 Bft) N-NO 13 0 min 0 W/m -2,3 C -1,3 C 6,4 km/h (2 Bft)
17.01.2017 02:09 -1,3 C 93 % 1033,3 hPa 0,0 l/m 3,2 km/h (1 Bft) N 5 0 min 0 W/m -2,3 C -1,3 C 6,4 km/h (2 Bft)
17.01.2017 02:12 -1,2 C 92 % 1033,3 hPa 0,0 l/m 3,7 km/h (1 Bft) N 5 0 min 0 W/m -2,3 C -1,2 C 8,0 km/h (2 Bft)
17.01.2017 02:15 -1,2 C 92 % 1033,3 hPa 0,0 l/m 3,5 km/h (1 Bft) N-NO 19 0 min 0 W/m -2,3 C -1,2 C 6,4 km/h (2 Bft)
17.01.2017 02:18 -1,2 C 92 % 1033,3 hPa 0,0 l/m 3,8 km/h (1 Bft) N 355 0 min 0 W/m -2,3 C -1,2 C 6,4 km/h (2 Bft)
17.01.2017 02:21 -1,3 C 91 % 1033,3 hPa 0,0 l/m 2,9 km/h (1 Bft) N 5 0 min 0 W/m -2,6 C -1,3 C 6,4 km/h (2 Bft)
17.01.2017 02:24 -1,4 C 91 % 1033,3 hPa 0,0 l/m 2,5 km/h (1 Bft) N 355 0 min 0 W/m -2,7 C -1,4 C 6,4 km/h (2 Bft)
17.01.2017 02:27 -1,6 C 91 % 1033,3 hPa 0,0 l/m 1,8 km/h (1 Bft) N 355 0 min 0 W/m -2,9 C -1,6 C 3,2 km/h (1 Bft)
17.01.2017 02:30 -1,7 C 91 % 1033,3 hPa 0,0 l/m 0,9 km/h (0 Bft) N 355 0 min 0 W/m -3,0 C -1,7 C 1,6 km/h (1 Bft)
17.01.2017 02:33 -1,8 C 91 % 1033,3 hPa 0,0 l/m 2,1 km/h (1 Bft) N 360 0 min 0 W/m -3,1 C -1,8 C 6,4 km/h (2 Bft)
17.01.2017 02:36 -1,9 C 91 % 1033,4 hPa 0,0 l/m 1,6 km/h (1 Bft) N 360 0 min 0 W/m -3,2 C -1,9 C 3,2 km/h (1 Bft)
17.01.2017 02:39 -1,9 C 92 % 1033,4 hPa 0,0 l/m 1,6 km/h (1 Bft) N 360 0 min 0 W/m -3,0 C -1,9 C 3,2 km/h (1 Bft)
17.01.2017 02:42 -2,0 C 92 % 1033,4 hPa 0,0 l/m 1,8 km/h (1 Bft) N-NW 342 0 min 0 W/m -3,1 C -2,0 C 4,8 km/h (1 Bft)
17.01.2017 02:45 -2,1 C 92 % 1033,4 hPa 0,0 l/m 1,1 km/h (1 Bft) N-NW 345 0 min 0 W/m -3,2 C -2,1 C 4,8 km/h (1 Bft)
17.01.2017 02:48 -2,2 C 92 % 1033,4 hPa 0,0 l/m 1,1 km/h (1 Bft) N-NW 347 0 min 0 W/m -3,3 C -2,2 C 4,8 km/h (1 Bft)
17.01.2017 02:51 -2,2 C 92 % 1033,5 hPa 0,0 l/m 0,1 km/h (0 Bft) N-NW 347 0 min 0 W/m -3,3 C -2,2 C 1,6 km/h (1 Bft)
17.01.2017 02:54 -2,2 C 92 % 1033,5 hPa 0,0 l/m 2,0 km/h (1 Bft) N-NW 347 0 min 0 W/m -3,3 C -2,2 C 4,8 km/h (1 Bft)
17.01.2017 02:57 -2,2 C 92 % 1033,5 hPa 0,0 l/m 1,4 km/h (1 Bft) N-NW 347 0 min 0 W/m -3,3 C -2,2 C 4,8 km/h (1 Bft)
17.01.2017 03:00 -2,2 C 92 % 1033,5 hPa 0,0 l/m 0,1 km/h (0 Bft) N-NW 347 0 min 0 W/m -3,3 C -2,2 C 1,6 km/h (1 Bft)
17.01.2017 03:03 -2,3 C 92 % 1033,5 hPa 0,0 l/m 0,4 km/h (0 Bft) N-NW 342 0 min 0 W/m -3,4 C -2,3 C 4,8 km/h (1 Bft)
17.01.2017 03:06 -2,3 C 93 % 1033,5 hPa 0,0 l/m 0,9 km/h (0 Bft) N-NW 342 0 min 0 W/m -3,3 C -2,3 C 1,6 km/h (1 Bft)
17.01.2017 03:09 -2,3 C 93 % 1033,5 hPa 0,0 l/m 1,4 km/h (1 Bft) N-NW 344 0 min 0 W/m -3,3 C -2,3 C 3,2 km/h (1 Bft)
17.01.2017 03:12 -2,3 C 93 % 1033,5 hPa 0,0 l/m 1,1 km/h (1 Bft) N-NW 344 0 min 0 W/m -3,3 C -2,3 C 3,2 km/h (1 Bft)
17.01.2017 03:15 -2,3 C 93 % 1033,5 hPa 0,0 l/m 1,9 km/h (1 Bft) N-NW 344 0 min 0 W/m -3,3 C -2,3 C 4,8 km/h (1 Bft)
17.01.2017 03:18 -2,3 C 93 % 1033,5 hPa 0,0 l/m 1,4 km/h (1 Bft) N-NW 344 0 min 0 W/m -3,3 C -2,3 C 3,2 km/h (1 Bft)
17.01.2017 03:21 -2,3 C 93 % 1033,4 hPa 0,0 l/m 1,1 km/h (1 Bft) N-NW 344 0 min 0 W/m -3,3 C -2,3 C 3,2 km/h (1 Bft)
17.01.2017 03:24 -2,4 C 93 % 1033,5 hPa 0,0 l/m 0,9 km/h (0 Bft) N-NW 344 0 min 0 W/m -3,4 C -2,4 C 3,2 km/h (1 Bft)
17.01.2017 03:27 -2,4 C 93 % 1033,5 hPa 0,0 l/m 0,6 km/h (0 Bft) N-NW 344 0 min 0 W/m -3,4 C -2,4 C 3,2 km/h (1 Bft)
17.01.2017 03:30 -2,3 C 93 % 1033,5 hPa 0,0 l/m 1,2 km/h (1 Bft) N-NW 345 0 min 0 W/m -3,3 C -2,3 C 4,8 km/h (1 Bft)
17.01.2017 03:33 -2,4 C 93 % 1033,5 hPa 0,0 l/m 1,0 km/h (0 Bft) N-NW 339 0 min 0 W/m -3,4 C -2,4 C 3,2 km/h (1 Bft)
17.01.2017 03:36 -2,4 C 93 % 1033,5 hPa 0,0 l/m 1,5 km/h (1 Bft) N-NW 339 0 min 0 W/m -3,4 C -2,4 C 4,8 km/h (1 Bft)
17.01.2017 03:39 -2,4 C 93 % 1033,5 hPa 0,0 l/m 1,8 km/h (1 Bft) N-NW 340 0 min 0 W/m -3,4 C -2,4 C 3,2 km/h (1 Bft)
17.01.2017 03:42 -2,2 C 93 % 1033,6 hPa 0,0 l/m 3,5 km/h (1 Bft) N-NW 347 0 min 0 W/m -3,2 C -2,2 C 6,4 km/h (2 Bft)
17.01.2017 03:45 -2,1 C 93 % 1033,6 hPa 0,0 l/m 2,2 km/h (1 Bft) N-NW 347 0 min 0 W/m -3,1 C -2,1 C 3,2 km/h (1 Bft)
17.01.2017 03:48 -1,9 C 93 % 1033,6 hPa 0,0 l/m 3,4 km/h (1 Bft) N-NW 344 0 min 0 W/m -2,9 C -1,9 C 8,0 km/h (2 Bft)
17.01.2017 03:51 -1,8 C 93 % 1033,6 hPa 0,0 l/m 3,4 km/h (1 Bft) N-NW 345 0 min 0 W/m -2,8 C -1,8 C 6,4 km/h (2 Bft)
17.01.2017 03:54 -1,8 C 93 % 1033,6 hPa 0,0 l/m 2,6 km/h (1 Bft) N-NW 334 0 min 0 W/m -2,8 C -1,8 C 4,8 km/h (1 Bft)
17.01.2017 03:57 -1,9 C 92 % 1033,6 hPa 0,0 l/m 2,5 km/h (1 Bft) N-NW 346 0 min 0 W/m -3,0 C -1,9 C 8,0 km/h (2 Bft)
17.01.2017 04:00 -1,8 C 93 % 1033,7 hPa 0,0 l/m 3,1 km/h (1 Bft) N-NW 346 0 min 0 W/m -2,8 C -1,8 C 4,8 km/h (1 Bft)
17.01.2017 04:03 -1,7 C 93 % 1033,8 hPa 0,0 l/m 2,1 km/h (1 Bft) N-NW 344 0 min 0 W/m -2,7 C -1,7 C 3,2 km/h (1 Bft)
17.01.2017 04:06 -1,7 C 93 % 1033,8 hPa 0,0 l/m 2,3 km/h (1 Bft) NW 321 0 min 0 W/m -2,7 C -1,7 C 6,4 km/h (2 Bft)
17.01.2017 04:09 -1,7 C 93 % 1033,7 hPa 0,0 l/m 2,7 km/h (1 Bft) N 360 0 min 0 W/m -2,7 C -1,7 C 8,0 km/h (2 Bft)
17.01.2017 04:12 -1,7 C 92 % 1033,8 hPa 0,0 l/m 3,3 km/h (1 Bft) N-NW 338 0 min 0 W/m -2,8 C -1,7 C 8,0 km/h (2 Bft)
17.01.2017 04:15 -1,6 C 92 % 1033,8 hPa 0,0 l/m 2,6 km/h (1 Bft) N-NW 340 0 min 0 W/m -2,7 C -1,6 C 4,8 km/h (1 Bft)
17.01.2017 04:18 -1,6 C 92 % 1033,8 hPa 0,0 l/m 2,0 km/h (1 Bft) N 5 0 min 0 W/m -2,7 C -1,6 C 4,8 km/h (1 Bft)
17.01.2017 04:21 -1,8 C 92 % 1033,8 hPa 0,0 l/m 1,8 km/h (1 Bft) N 5 0 min 0 W/m -2,9 C -1,8 C 4,8 km/h (1 Bft)
17.01.2017 04:24 -1,9 C 92 % 1033,9 hPa 0,0 l/m 1,0 km/h (0 Bft) N 5 0 min 0 W/m -3,0 C -1,9 C 3,2 km/h (1 Bft)
17.01.2017 04:27 -2,0 C 92 % 1033,9 hPa 0,0 l/m 0,4 km/h (0 Bft) N 5 0 min 0 W/m -3,1 C -2,0 C 1,6 km/h (1 Bft)
17.01.2017 04:30 -2,1 C 92 % 1033,8 hPa 0,0 l/m 0,1 km/h (0 Bft) N 5 0 min 0 W/m -3,2 C -2,1 C 1,6 km/h (1 Bft)
17.01.2017 04:33 -2,1 C 92 % 1033,8 hPa 0,0 l/m 0,4 km/h (0 Bft) N 5 0 min 0 W/m -3,2 C -2,1 C 1,6 km/h (1 Bft)
17.01.2017 04:36 -2,2 C 92 % 1033,8 hPa 0,0 l/m 0,4 km/h (0 Bft) N 5 0 min 0 W/m -3,3 C -2,2 C 3,2 km/h (1 Bft)
17.01.2017 04:39 -2,2 C 92 % 1033,8 hPa 0,0 l/m 0,1 km/h (0 Bft) N 5 0 min 0 W/m -3,3 C -2,2 C 1,6 km/h (1 Bft)
17.01.2017 04:42 -2,3 C 92 % 1033,8 hPa 0,0 l/m 0,0 km/h (0 Bft) N 5 0 min 0 W/m -3,4 C -2,3 C 0,0 km/h (0 Bft)
17.01.2017 04:45 -2,3 C 92 % 1033,8 hPa 0,0 l/m 0,0 km/h (0 Bft) N 5 0 min 0 W/m -3,4 C -2,3 C 0,0 km/h (0 Bft)
17.01.2017 04:48 -2,3 C 92 % 1033,8 hPa 0,0 l/m 0,1 km/h (0 Bft) N 5 0 min 0 W/m -3,4 C -2,3 C 1,6 km/h (1 Bft)
17.01.2017 04:51 -2,3 C 92 % 1033,8 hPa 0,0 l/m 0,0 km/h (0 Bft) N 5 0 min 0 W/m -3,4 C -2,3 C 0,0 km/h (0 Bft)
17.01.2017 04:54 -2,4 C 92 % 1033,8 hPa 0,0 l/m 0,1 km/h (0 Bft) N 5 0 min 0 W/m -3,5 C -2,4 C 1,6 km/h (1 Bft)
17.01.2017 04:57 -2,4 C 92 % 1033,8 hPa 0,0 l/m 0,6 km/h (0 Bft) N 5 0 min 0 W/m -3,5 C -2,4 C 1,6 km/h (1 Bft)
17.01.2017 05:00 -2,4 C 92 % 1033,8 hPa 0,0 l/m 0,0 km/h (0 Bft) N 5 0 min 0 W/m -3,5 C -2,4 C 1,6 km/h (1 Bft)
17.01.2017 05:03 -2,5 C 92 % 1033,8 hPa 0,0 l/m 0,3 km/h (0 Bft) N 5 0 min 0 W/m -3,6 C -2,5 C 1,6 km/h (1 Bft)
17.01.2017 05:06 -2,6 C 92 % 1033,8 hPa 0,0 l/m 0,0 km/h (0 Bft) N 5 0 min 0 W/m -3,7 C -2,6 C 1,6 km/h (1 Bft)
17.01.2017 05:09 -2,6 C 92 % 1033,9 hPa 0,0 l/m 0,0 km/h (0 Bft) N 5 0 min 0 W/m -3,7 C -2,6 C 0,0 km/h (0 Bft)
17.01.2017 05:12 -2,6 C 92 % 1033,9 hPa 0,0 l/m 0,0 km/h (0 Bft) N 5 0 min 0 W/m -3,7 C -2,6 C 0,0 km/h (0 Bft)
17.01.2017 05:15 -2,6 C 93 % 1033,8 hPa 0,0 l/m 0,0 km/h (0 Bft) N 5 0 min 0 W/m -3,6 C -2,6 C 1,6 km/h (1 Bft)
17.01.2017 05:18 -2,6 C 93 % 1033,8 hPa 0,0 l/m 0,3 km/h (0 Bft) N 5 0 min 0 W/m -3,6 C -2,6 C 1,6 km/h (1 Bft)
17.01.2017 05:21 -2,6 C 93 % 1033,9 hPa 0,0 l/m 0,5 km/h (0 Bft) N 5 0 min 0 W/m -3,6 C -2,6 C 3,2 km/h (1 Bft)
17.01.2017 05:24 -2,6 C 93 % 1033,9 hPa 0,0 l/m 0,0 km/h (0 Bft) N 5 0 min 0 W/m -3,6 C -2,6 C 1,6 km/h (1 Bft)
17.01.2017 05:27 -2,6 C 93 % 1034,0 hPa 0,0 l/m 0,0 km/h (0 Bft) N 5 0 min 0 W/m -3,6 C -2,6 C 0,0 km/h (0 Bft)
17.01.2017 05:30 -2,7 C 93 % 1034,0 hPa 0,0 l/m 0,2 km/h (0 Bft) N 5 0 min 0 W/m -3,7 C -2,7 C 1,6 km/h (1 Bft)
17.01.2017 05:33 -2,7 C 93 % 1034,0 hPa 0,0 l/m 0,4 km/h (0 Bft) N 5 0 min 0 W/m -3,7 C -2,7 C 1,6 km/h (1 Bft)
17.01.2017 05:36 -2,7 C 93 % 1034,0 hPa 0,0 l/m 0,7 km/h (0 Bft) N 5 0 min 0 W/m -3,7 C -2,7 C 3,2 km/h (1 Bft)
17.01.2017 05:39 -2,7 C 93 % 1034,0 hPa 0,0 l/m 1,3 km/h (1 Bft) N 5 0 min 0 W/m -3,7 C -2,7 C 3,2 km/h (1 Bft)
17.01.2017 05:42 -2,7 C 93 % 1034,1 hPa 0,0 l/m 1,4 km/h (1 Bft) N 5 0 min 0 W/m -3,7 C -2,7 C 3,2 km/h (1 Bft)
17.01.2017 05:45 -2,7 C 93 % 1034,1 hPa 0,0 l/m 0,8 km/h (0 Bft) N 5 0 min 0 W/m -3,7 C -2,7 C 1,6 km/h (1 Bft)
17.01.2017 05:48 -2,7 C 93 % 1034,1 hPa 0,0 l/m 0,5 km/h (0 Bft) N 5 0 min 0 W/m -3,7 C -2,7 C 1,6 km/h (1 Bft)
17.01.2017 05:51 -2,7 C 93 % 1034,1 hPa 0,0 l/m 1,8 km/h (1 Bft) N 5 0 min 0 W/m -3,7 C -2,7 C 4,8 km/h (1 Bft)
17.01.2017 05:54 -2,7 C 93 % 1034,2 hPa 0,0 l/m 1,7 km/h (1 Bft) N 5 0 min 0 W/m -3,7 C -2,7 C 4,8 km/h (1 Bft)
17.01.2017 05:57 -2,7 C 93 % 1034,2 hPa 0,0 l/m 0,9 km/h (0 Bft) N 5 0 min 0 W/m -3,7 C -2,7 C 4,8 km/h (1 Bft)
17.01.2017 06:00 -2,6 C 93 % 1034,2 hPa 0,0 l/m 0,5 km/h (0 Bft) N 5 0 min 0 W/m -3,6 C -2,6 C 3,2 km/h (1 Bft)
17.01.2017 06:03 -2,6 C 93 % 1034,1 hPa 0,0 l/m 0,0 km/h (0 Bft) N 5 0 min 0 W/m -3,6 C -2,6 C 1,6 km/h (1 Bft)
17.01.2017 06:06 -2,7 C 93 % 1034,2 hPa 0,0 l/m 0,1 km/h (0 Bft) N 5 0 min 0 W/m -3,7 C -2,7 C 1,6 km/h (1 Bft)
17.01.2017 06:09 -2,7 C 93 % 1034,2 hPa 0,0 l/m 0,9 km/h (0 Bft) N 5 0 min 0 W/m -3,7 C -2,7 C 3,2 km/h (1 Bft)
17.01.2017 06:12 -2,7 C 93 % 1034,3 hPa 0,0 l/m 0,4 km/h (0 Bft) N 5 0 min 0 W/m -3,7 C -2,7 C 3,2 km/h (1 Bft)
17.01.2017 06:15 -2,8 C 93 % 1034,2 hPa 0,0 l/m 0,6 km/h (0 Bft) N 5 0 min 0 W/m -3,8 C -2,8 C 3,2 km/h (1 Bft)
17.01.2017 06:18 -2,9 C 93 % 1034,3 hPa 0,0 l/m 0,2 km/h (0 Bft) N 5 0 min 0 W/m -3,9 C -2,9 C 1,6 km/h (1 Bft)
17.01.2017 06:21 -3,0 C 93 % 1034,3 hPa 0,0 l/m 0,2 km/h (0 Bft) N 5 0 min 0 W/m -4,0 C -3,0 C 1,6 km/h (1 Bft)
17.01.2017 06:24 -3,1 C 93 % 1034,3 hPa 0,0 l/m 0,9 km/h (0 Bft) N 5 0 min 0 W/m -4,1 C -3,1 C 3,2 km/h (1 Bft)
17.01.2017 06:27 -3,1 C 93 % 1034,4 hPa 0,0 l/m 0,8 km/h (0 Bft) N 5 0 min 0 W/m -4,1 C -3,1 C 3,2 km/h (1 Bft)
17.01.2017 06:30 -3,2 C 93 % 1034,4 hPa 0,0 l/m 0,6 km/h (0 Bft) N 5 0 min 0 W/m -4,2 C -3,2 C 1,6 km/h (1 Bft)
17.01.2017 06:33 -3,1 C 93 % 1034,5 hPa 0,0 l/m 0,6 km/h (0 Bft) N 360 0 min 0 W/m -4,1 C -3,1 C 3,2 km/h (1 Bft)
17.01.2017 06:36 -3,1 C 93 % 1034,5 hPa 0,0 l/m 1,4 km/h (1 Bft) N 9 0 min 0 W/m -4,1 C -3,1 C 3,2 km/h (1 Bft)
17.01.2017 06:39 -3,1 C 93 % 1034,5 hPa 0,0 l/m 0,3 km/h (0 Bft) N 9 0 min 0 W/m -4,1 C -3,1 C 1,6 km/h (1 Bft)
17.01.2017 06:42 -3,0 C 93 % 1034,4 hPa 0,0 l/m 0,0 km/h (0 Bft) N 9 0 min 0 W/m -4,0 C -3,0 C 1,6 km/h (1 Bft)
17.01.2017 06:45 -2,9 C 94 % 1034,5 hPa 0,0 l/m 0,2 km/h (0 Bft) N 5 0 min 0 W/m -3,7 C -2,9 C 1,6 km/h (1 Bft)
17.01.2017 06:48 -2,9 C 94 % 1034,5 hPa 0,0 l/m 0,1 km/h (0 Bft) N 5 0 min 0 W/m -3,7 C -2,9 C 1,6 km/h (1 Bft)
17.01.2017 06:51 -2,8 C 94 % 1034,5 hPa 0,0 l/m 0,3 km/h (0 Bft) N 5 0 min 0 W/m -3,6 C -2,8 C 1,6 km/h (1 Bft)
17.01.2017 06:54 -2,8 C 94 % 1034,5 hPa 0,0 l/m 0,2 km/h (0 Bft) N 5 0 min 0 W/m -3,6 C -2,8 C 1,6 km/h (1 Bft)
17.01.2017 06:57 -2,7 C 94 % 1034,5 hPa 0,0 l/m 0,1 km/h (0 Bft) N 5 0 min 0 W/m -3,5 C -2,7 C 1,6 km/h (1 Bft)
17.01.2017 07:00 -2,7 C 94 % 1034,5 hPa 0,0 l/m 0,0 km/h (0 Bft) N 5 0 min 0 W/m -3,5 C -2,7 C 0,0 km/h (0 Bft)
17.01.2017 07:03 -2,6 C 94 % 1034,5 hPa 0,0 l/m 0,0 km/h (0 Bft) N 5 0 min 0 W/m -3,4 C -2,6 C 1,6 km/h (1 Bft)
17.01.2017 07:06 -2,6 C 94 % 1034,6 hPa 0,0 l/m 0,0 km/h (0 Bft) N 5 0 min 0 W/m -3,4 C -2,6 C 0,0 km/h (0 Bft)
17.01.2017 07:09 -2,6 C 94 % 1034,6 hPa 0,0 l/m 0,0 km/h (0 Bft) N 5 0 min 0 W/m -3,4 C -2,6 C 1,6 km/h (1 Bft)
17.01.2017 07:12 -2,6 C 94 % 1034,7 hPa 0,0 l/m 0,1 km/h (0 Bft) N 5 0 min 0 W/m -3,4 C -2,6 C 1,6 km/h (1 Bft)
17.01.2017 07:15 -2,6 C 94 % 1034,7 hPa 0,0 l/m 0,0 km/h (0 Bft) N 5 0 min 0 W/m -3,4 C -2,6 C 1,6 km/h (1 Bft)
17.01.2017 07:18 -2,6 C 94 % 1034,8 hPa 0,0 l/m 0,2 km/h (0 Bft) N 5 0 min 0 W/m -3,4 C -2,6 C 1,6 km/h (1 Bft)
17.01.2017 07:21 -2,6 C 94 % 1034,9 hPa 0,0 l/m 0,9 km/h (0 Bft) N 5 0 min 0 W/m -3,4 C -2,6 C 1,6 km/h (1 Bft)
17.01.2017 07:24 -2,6 C 94 % 1034,8 hPa 0,0 l/m 0,1 km/h (0 Bft) N 5 0 min 0 W/m -3,4 C -2,6 C 1,6 km/h (1 Bft)
17.01.2017 07:27 -2,6 C 94 % 1034,9 hPa 0,0 l/m 0,0 km/h (0 Bft) N 5 0 min 0 W/m -3,4 C -2,6 C 0,0 km/h (0 Bft)
17.01.2017 07:30 -2,5 C 94 % 1035,0 hPa 0,0 l/m 0,0 km/h (0 Bft) N 5 0 min 0 W/m -3,3 C -2,5 C 0,0 km/h (0 Bft)
17.01.2017 07:33 -2,5 C 94 % 1035,0 hPa 0,0 l/m 0,0 km/h (0 Bft) N 5 0 min 0 W/m -3,3 C -2,5 C 0,0 km/h (0 Bft)
17.01.2017 07:36 -2,4 C 94 % 1035,0 hPa 0,0 l/m 0,0 km/h (0 Bft) N 5 0 min 0 W/m -3,2 C -2,4 C 0,0 km/h (0 Bft)
17.01.2017 07:39 -2,4 C 94 % 1035,1 hPa 0,0 l/m 0,0 km/h (0 Bft) N 5 0 min 0 W/m -3,2 C -2,4 C 0,0 km/h (0 Bft)
17.01.2017 07:42 -2,4 C 94 % 1035,1 hPa 0,0 l/m 0,0 km/h (0 Bft) N 5 0 min 0 W/m -3,2 C -2,4 C 0,0 km/h (0 Bft)
17.01.2017 07:45 -2,4 C 94 % 1035,2 hPa 0,0 l/m 0,0 km/h (0 Bft) N 5 0 min 0 W/m -3,2 C -2,4 C 1,6 km/h (1 Bft)
17.01.2017 07:48 -2,4 C 94 % 1035,3 hPa 0,0 l/m 0,0 km/h (0 Bft) N 5 0 min 0 W/m -3,2 C -2,4 C 0,0 km/h (0 Bft)
17.01.2017 07:51 -2,5 C 94 % 1035,3 hPa 0,0 l/m 0,0 km/h (0 Bft) N 5 0 min 0 W/m -3,3 C -2,5 C 0,0 km/h (0 Bft)
17.01.2017 07:54 -2,6 C 94 % 1035,3 hPa 0,0 l/m 0,0 km/h (0 Bft) N 5 0 min 0 W/m -3,4 C -2,6 C 0,0 km/h (0 Bft)
17.01.2017 07:57 -2,6 C 94 % 1035,4 hPa 0,0 l/m 0,0 km/h (0 Bft) N 5 0 min 0 W/m -3,4 C -2,6 C 0,0 km/h (0 Bft)
17.01.2017 08:00 -2,7 C 94 % 1035,4 hPa 0,0 l/m 0,0 km/h (0 Bft) N 5 0 min 0 W/m -3,5 C -2,7 C 1,6 km/h (1 Bft)
17.01.2017 08:03 -2,7 C 94 % 1035,4 hPa 0,0 l/m 0,0 km/h (0 Bft) N 5 0 min 0 W/m -3,5 C -2,7 C 0,0 km/h (0 Bft)
17.01.2017 08:06 -2,8 C 94 % 1035,5 hPa 0,0 l/m 0,0 km/h (0 Bft) N 5 0 min 0 W/m -3,6 C -2,8 C 0,0 km/h (0 Bft)
17.01.2017 08:09 -2,8 C 94 % 1035,5 hPa 0,0 l/m 0,1 km/h (0 Bft) N 5 0 min 0 W/m -3,6 C -2,8 C 1,6 km/h (1 Bft)
17.01.2017 08:12 -2,8 C 94 % 1035,5 hPa 0,0 l/m 0,0 km/h (0 Bft) N 5 0 min 0 W/m -3,6 C -2,8 C 1,6 km/h (1 Bft)
17.01.2017 08:15 -2,8 C 94 % 1035,5 hPa 0,0 l/m 0,0 km/h (0 Bft) N 5 0 min 0 W/m -3,6 C -2,8 C 1,6 km/h (1 Bft)
17.01.2017 08:18 -2,8 C 94 % 1035,6 hPa 0,0 l/m 0,0 km/h (0 Bft) N 5 0 min 0 W/m -3,6 C -2,8 C 0,0 km/h (0 Bft)
17.01.2017 08:21 -2,7 C 94 % 1035,6 hPa 0,0 l/m 0,0 km/h (0 Bft) N 5 0 min 0 W/m -3,5 C -2,7 C 0,0 km/h (0 Bft)
17.01.2017 08:24 -2,7 C 94 % 1035,7 hPa 0,0 l/m 0,0 km/h (0 Bft) N 5 0 min 5 W/m -3,5 C -2,7 C 0,0 km/h (0 Bft)
17.01.2017 08:27 -2,6 C 94 % 1035,6 hPa 0,0 l/m 0,2 km/h (0 Bft) N 5 0 min 5 W/m -3,4 C -2,6 C 1,6 km/h (1 Bft)
17.01.2017 08:30 -2,6 C 94 % 1035,7 hPa 0,0 l/m 0,0 km/h (0 Bft) N 5 0 min 5 W/m -3,4 C -2,6 C 0,0 km/h (0 Bft)
17.01.2017 08:33 -2,6 C 94 % 1035,8 hPa 0,0 l/m 0,0 km/h (0 Bft) N 5 0 min 5 W/m -3,4 C -2,6 C 1,6 km/h (1 Bft)
17.01.2017 08:36 -2,5 C 94 % 1035,8 hPa 0,0 l/m 0,1 km/h (0 Bft) N 5 0 min 5 W/m -3,3 C -2,5 C 1,6 km/h (1 Bft)
17.01.2017 08:39 -2,5 C 94 % 1035,8 hPa 0,0 l/m 0,0 km/h (0 Bft) N 5 0 min 5 W/m -3,3 C -2,5 C 1,6 km/h (1 Bft)
17.01.2017 08:42 -2,4 C 94 % 1035,8 hPa 0,0 l/m 0,2 km/h (0 Bft) N 5 0 min 5 W/m -3,2 C -2,4 C 1,6 km/h (1 Bft)
17.01.2017 08:45 -2,4 C 94 % 1035,8 hPa 0,0 l/m 0,0 km/h (0 Bft) N 5 0 min 5 W/m -3,2 C -2,4 C 0,0 km/h (0 Bft)
17.01.2017 08:48 -2,4 C 94 % 1035,7 hPa 0,0 l/m 0,4 km/h (0 Bft) N 5 0 min 7 W/m -3,2 C -2,4 C 3,2 km/h (1 Bft)
17.01.2017 08:51 -2,3 C 94 % 1035,8 hPa 0,0 l/m 0,0 km/h (0 Bft) N 5 0 min 7 W/m -3,1 C -2,3 C 1,6 km/h (1 Bft)
17.01.2017 08:54 -2,3 C 94 % 1035,8 hPa 0,0 l/m 0,0 km/h (0 Bft) N 5 0 min 9 W/m -3,1 C -2,3 C 0,0 km/h (0 Bft)
17.01.2017 08:57 -2,3 C 94 % 1035,9 hPa 0,0 l/m 0,1 km/h (0 Bft) N 5 0 min 9 W/m -3,1 C -2,3 C 1,6 km/h (1 Bft)
17.01.2017 09:00 -2,3 C 94 % 1035,9 hPa 0,0 l/m 0,8 km/h (0 Bft) N 5 0 min 9 W/m -3,1 C -2,3 C 1,6 km/h (1 Bft)
17.01.2017 09:03 -2,3 C 94 % 1035,9 hPa 0,0 l/m 1,5 km/h (1 Bft) N 5 0 min 12 W/m -3,1 C -2,3 C 3,2 km/h (1 Bft)
17.01.2017 09:06 -2,4 C 94 % 1035,9 hPa 0,0 l/m 0,9 km/h (0 Bft) N 5 0 min 14 W/m -3,2 C -2,4 C 1,6 km/h (1 Bft)
17.01.2017 09:09 -2,3 C 94 % 1036,0 hPa 0,0 l/m 0,1 km/h (0 Bft) N 5 0 min 21 W/m -3,1 C -2,3 C 1,6 km/h (1 Bft)
17.01.2017 09:12 -2,3 C 94 % 1036,0 hPa 0,0 l/m 0,4 km/h (0 Bft) N 5 0 min 23 W/m -3,1 C -2,3 C 1,6 km/h (1 Bft)
17.01.2017 09:15 -2,3 C 94 % 1036,1 hPa 0,0 l/m 0,0 km/h (0 Bft) N 5 0 min 21 W/m -3,1 C -2,3 C 0,0 km/h (0 Bft)
17.01.2017 09:18 -2,2 C 94 % 1036,2 hPa 0,0 l/m 0,0 km/h (0 Bft) N 5 0 min 21 W/m -3,0 C -2,2 C 0,0 km/h (0 Bft)
17.01.2017 09:21 -2,2 C 94 % 1036,3 hPa 0,0 l/m 0,0 km/h (0 Bft) N 5 0 min 23 W/m -3,0 C -2,2 C 0,0 km/h (0 Bft)
17.01.2017 09:24 -2,2 C 94 % 1036,2 hPa 0,0 l/m 0,1 km/h (0 Bft) N 5 0 min 26 W/m -3,0 C -2,2 C 1,6 km/h (1 Bft)
17.01.2017 09:27 -2,1 C 94 % 1036,2 hPa 0,0 l/m 0,0 km/h (0 Bft) N 5 0 min 30 W/m -2,9 C -2,1 C 0,0 km/h (0 Bft)
17.01.2017 09:30 -1,9 C 94 % 1036,3 hPa 0,0 l/m 0,0 km/h (0 Bft) N 5 0 min 30 W/m -2,7 C -1,9 C 1,6 km/h (1 Bft)
17.01.2017 09:33 -1,8 C 94 % 1036,4 hPa 0,0 l/m 0,3 km/h (0 Bft) N 5 0 min 28 W/m -2,6 C -1,8 C 1,6 km/h (1 Bft)
17.01.2017 09:36 -1,8 C 94 % 1036,3 hPa 0,0 l/m 0,0 km/h (0 Bft) N 5 0 min 30 W/m -2,6 C -1,8 C 1,6 km/h (1 Bft)
17.01.2017 09:39 -1,7 C 94 % 1036,4 hPa 0,0 l/m 0,0 km/h (0 Bft) N 5 0 min 30 W/m -2,5 C -1,7 C 0,0 km/h (0 Bft)
17.01.2017 09:42 -1,7 C 94 % 1036,5 hPa 0,0 l/m 0,0 km/h (0 Bft) N 5 0 min 32 W/m -2,5 C -1,7 C 0,0 km/h (0 Bft)
17.01.2017 09:45 -1,6 C 94 % 1036,5 hPa 0,0 l/m 0,0 km/h (0 Bft) N 5 0 min 33 W/m -2,4 C -1,6 C 0,0 km/h (0 Bft)
17.01.2017 09:48 -1,6 C 94 % 1036,4 hPa 0,0 l/m 1,0 km/h (0 Bft) N 5 0 min 33 W/m -2,4 C -1,6 C 3,2 km/h (1 Bft)
17.01.2017 09:51 -1,5 C 94 % 1036,4 hPa 0,0 l/m 2,4 km/h (1 Bft) N 5 0 min 37 W/m -2,3 C -1,5 C 3,2 km/h (1 Bft)
17.01.2017 09:54 -1,5 C 94 % 1036,4 hPa 0,0 l/m 3,8 km/h (1 Bft) SW 234 0 min 39 W/m -2,3 C -1,5 C 6,4 km/h (2 Bft)
17.01.2017 09:57 -1,5 C 94 % 1036,4 hPa 0,0 l/m 1,6 km/h (1 Bft) SW 234 0 min 40 W/m -2,3 C -1,5 C 3,2 km/h (1 Bft)
17.01.2017 10:00 -1,4 C 94 % 1036,5 hPa 0,0 l/m 0,3 km/h (0 Bft) SW 234 0 min 42 W/m -2,2 C -1,4 C 1,6 km/h (1 Bft)
17.01.2017 10:03 -1,4 C 94 % 1036,4 hPa 0,0 l/m 0,2 km/h (0 Bft) SW 234 0 min 46 W/m -2,2 C -1,4 C 1,6 km/h (1 Bft)
17.01.2017 10:06 -1,4 C 94 % 1036,5 hPa 0,0 l/m 0,1 km/h (0 Bft) SW 234 0 min 49 W/m -2,2 C -1,4 C 1,6 km/h (1 Bft)
17.01.2017 10:09 -1,3 C 95 % 1036,5 hPa 0,0 l/m 0,6 km/h (0 Bft) SW 234 0 min 51 W/m -2,0 C -1,3 C 1,6 km/h (1 Bft)
17.01.2017 10:12 -1,3 C 95 % 1036,5 hPa 0,0 l/m 0,8 km/h (0 Bft) SW 234 0 min 54 W/m -2,0 C -1,3 C 1,6 km/h (1 Bft)
17.01.2017 10:15 -1,2 C 95 % 1036,6 hPa 0,0 l/m 0,0 km/h (0 Bft) SW 234 0 min 56 W/m -1,9 C -1,2 C 0,0 km/h (0 Bft)
17.01.2017 10:18 -1,2 C 94 % 1036,6 hPa 0,0 l/m 0,0 km/h (0 Bft) SW 234 0 min 54 W/m -2,0 C -1,2 C 0,0 km/h (0 Bft)
17.01.2017 10:21 -1,1 C 95 % 1036,6 hPa 0,0 l/m 0,0 km/h (0 Bft) SW 234 0 min 56 W/m -1,8 C -1,1 C 0,0 km/h (0 Bft)
17.01.2017 10:24 -1,1 C 95 % 1036,6 hPa 0,0 l/m 0,0 km/h (0 Bft) SW 234 0 min 58 W/m -1,8 C -1,1 C 0,0 km/h (0 Bft)
17.01.2017 10:27 -1,0 C 95 % 1036,7 hPa 0,0 l/m 0,0 km/h (0 Bft) SW 234 0 min 65 W/m -1,7 C -1,0 C 0,0 km/h (0 Bft)
17.01.2017 10:30 -0,8 C 94 % 1036,7 hPa 0,0 l/m 0,0 km/h (0 Bft) SW 234 0 min 69 W/m -1,6 C -0,8 C 0,0 km/h (0 Bft)
17.01.2017 10:33 -0,7 C 94 % 1036,7 hPa 0,0 l/m 0,0 km/h (0 Bft) SW 234 0 min 65 W/m -1,5 C -0,7 C 0,0 km/h (0 Bft)
17.01.2017 10:36 -0,6 C 94 % 1036,8 hPa 0,0 l/m 0,3 km/h (0 Bft) SW 234 0 min 63 W/m -1,4 C -0,6 C 1,6 km/h (1 Bft)
17.01.2017 10:39 -0,4 C 93 % 1036,8 hPa 0,0 l/m 1,0 km/h (0 Bft) SW 234 0 min 65 W/m -1,4 C -0,4 C 1,6 km/h (1 Bft)
17.01.2017 10:42 -0,3 C 93 % 1036,8 hPa 0,0 l/m 1,2 km/h (1 Bft) SW 234 0 min 60 W/m -1,3 C -0,3 C 3,2 km/h (1 Bft)
17.01.2017 10:45 -0,3 C 93 % 1036,8 hPa 0,0 l/m 1,7 km/h (1 Bft) SW 234 0 min 51 W/m -1,3 C -0,3 C 3,2 km/h (1 Bft)
17.01.2017 10:48 -0,3 C 93 % 1036,8 hPa 0,0 l/m 0,9 km/h (0 Bft) SW 234 0 min 46 W/m -1,3 C -0,3 C 3,2 km/h (1 Bft)
17.01.2017 10:51 -0,2 C 93 % 1036,8 hPa 0,0 l/m 1,4 km/h (1 Bft) SW 234 0 min 44 W/m -1,2 C -0,2 C 3,2 km/h (1 Bft)
17.01.2017 10:54 -0,2 C 92 % 1036,8 hPa 0,0 l/m 2,0 km/h (1 Bft) SW 234 0 min 40 W/m -1,3 C -0,2 C 3,2 km/h (1 Bft)
17.01.2017 10:57 -0,2 C 92 % 1036,8 hPa 0,0 l/m 0,8 km/h (0 Bft) SW 234 0 min 37 W/m -1,3 C -0,2 C 1,6 km/h (1 Bft)
17.01.2017 11:00 -0,3 C 92 % 1036,8 hPa 0,0 l/m 1,2 km/h (1 Bft) SW 234 0 min 47 W/m -1,4 C -0,3 C 3,2 km/h (1 Bft)
17.01.2017 11:03 -0,3 C 93 % 1036,8 hPa 0,0 l/m 0,6 km/h (0 Bft) SW 234 0 min 40 W/m -1,3 C -0,3 C 1,6 km/h (1 Bft)
17.01.2017 11:06 -0,3 C 93 % 1036,8 hPa 0,0 l/m 0,6 km/h (0 Bft) SW 234 0 min 33 W/m -1,3 C -0,3 C 3,2 km/h (1 Bft)
17.01.2017 11:09 -0,4 C 93 % 1036,7 hPa 0,0 l/m 1,8 km/h (1 Bft) SW 234 0 min 30 W/m -1,4 C -0,4 C 3,2 km/h (1 Bft)
17.01.2017 11:12 -0,5 C 92 % 1036,6 hPa 0,0 l/m 1,9 km/h (1 Bft) SW 234 0 min 35 W/m -1,6 C -0,5 C 3,2 km/h (1 Bft)
17.01.2017 11:15 -0,6 C 93 % 1036,7 hPa 0,0 l/m 1,5 km/h (1 Bft) SW 234 0 min 39 W/m -1,6 C -0,6 C 3,2 km/h (1 Bft)
17.01.2017 11:18 -0,5 C 93 % 1036,8 hPa 0,0 l/m 1,3 km/h (1 Bft) SW 234 0 min 47 W/m -1,5 C -0,5 C 3,2 km/h (1 Bft)
17.01.2017 11:21 -0,3 C 93 % 1036,7 hPa 0,0 l/m 1,2 km/h (1 Bft) SW 234 0 min 125 W/m -1,3 C -0,3 C 3,2 km/h (1 Bft)
17.01.2017 11:24 -0,3 C 93 % 1036,7 hPa 0,0 l/m 0,7 km/h (0 Bft) SW 234 0 min 39 W/m -1,3 C -0,3 C 1,6 km/h (1 Bft)
17.01.2017 11:27 -0,3 C 93 % 1036,8 hPa 0,0 l/m 0,0 km/h (0 Bft) SW 234 0 min 49 W/m -1,3 C -0,3 C 0,0 km/h (0 Bft)
17.01.2017 11:30 -0,3 C 92 % 1036,9 hPa 0,0 l/m 0,0 km/h (0 Bft) SW 234 0 min 42 W/m -1,4 C -0,3 C 0,0 km/h (0 Bft)
17.01.2017 11:33 -0,2 C 92 % 1036,9 hPa 0,0 l/m 0,0 km/h (0 Bft) SW 234 0 min 49 W/m -1,3 C -0,2 C 0,0 km/h (0 Bft)
17.01.2017 11:36 -0,1 C 91 % 1036,9 hPa 0,0 l/m 0,0 km/h (0 Bft) SW 234 0 min 56 W/m -1,4 C -0,1 C 0,0 km/h (0 Bft)
17.01.2017 11:39 -0,1 C 91 % 1037,0 hPa 0,0 l/m 0,0 km/h (0 Bft) SW 234 0 min 63 W/m -1,4 C -0,1 C 0,0 km/h (0 Bft)
17.01.2017 11:42 -0,1 C 91 % 1036,9 hPa 0,0 l/m 0,0 km/h (0 Bft) SW 234 0 min 65 W/m -1,4 C -0,1 C 0,0 km/h (0 Bft)
17.01.2017 11:45 0,1 C 91 % 1036,9 hPa 0,0 l/m 1,1 km/h (1 Bft) SW 234 0 min 139 W/m -1,2 C 0,1 C 3,2 km/h (1 Bft)
17.01.2017 11:48 0,3 C 91 % 1037,0 hPa 0,0 l/m 2,9 km/h (1 Bft) SW 234 0 min 142 W/m -1,0 C 0,3 C 4,8 km/h (1 Bft)
17.01.2017 11:51 0,4 C 90 % 1037,0 hPa 0,0 l/m 3,4 km/h (1 Bft) SW 234 0 min 113 W/m -1,0 C 0,4 C 4,8 km/h (1 Bft)
17.01.2017 11:54 0,6 C 89 % 1037,0 hPa 0,0 l/m 2,5 km/h (1 Bft) SW 234 0 min 100 W/m -1,0 C 0,6 C 4,8 km/h (1 Bft)
17.01.2017 11:57 0,7 C 88 % 1036,9 hPa 0,0 l/m 1,7 km/h (1 Bft) SW 234 0 min 105 W/m -1,1 C 0,7 C 3,2 km/h (1 Bft)
17.01.2017 12:00 0,7 C 88 % 1036,9 hPa 0,0 l/m 3,2 km/h (1 Bft) SW 234 0 min 123 W/m -1,1 C 0,7 C 6,4 km/h (2 Bft)
17.01.2017 12:03 0,7 C 87 % 1036,9 hPa 0,0 l/m 2,7 km/h (1 Bft) SW 234 0 min 111 W/m -1,2 C 0,7 C 4,8 km/h (1 Bft)
17.01.2017 12:06 0,8 C 87 % 1036,9 hPa 0,0 l/m 1,7 km/h (1 Bft) SW 234 0 min 109 W/m -1,1 C 0,8 C 3,2 km/h (1 Bft)
17.01.2017 12:09 0,8 C 87 % 1036,9 hPa 0,0 l/m 2,5 km/h (1 Bft) SW 234 0 min 116 W/m -1,1 C 0,8 C 3,2 km/h (1 Bft)
17.01.2017 12:12 0,8 C 87 % 1036,9 hPa 0,0 l/m 2,2 km/h (1 Bft) SW 234 0 min 127 W/m -1,1 C 0,8 C 3,2 km/h (1 Bft)
17.01.2017 12:15 0,8 C 87 % 1037,0 hPa 0,0 l/m 2,3 km/h (1 Bft) SW 234 0 min 128 W/m -1,1 C 0,8 C 4,8 km/h (1 Bft)
17.01.2017 12:18 0,8 C 87 % 1037,0 hPa 0,0 l/m 1,8 km/h (1 Bft) SW 234 0 min 125 W/m -1,1 C 0,8 C 3,2 km/h (1 Bft)
17.01.2017 12:21 0,9 C 87 % 1036,9 hPa 0,0 l/m 3,6 km/h (1 Bft) SW 234 0 min 132 W/m -1,0 C 0,9 C 6,4 km/h (2 Bft)
17.01.2017 12:24 0,9 C 86 % 1037,0 hPa 0,0 l/m 3,3 km/h (1 Bft) SW 234 0 min 121 W/m -1,2 C 0,9 C 4,8 km/h (1 Bft)
17.01.2017 12:27 0,9 C 86 % 1036,9 hPa 0,0 l/m 3,0 km/h (1 Bft) SW 234 0 min 100 W/m -1,2 C 0,9 C 4,8 km/h (1 Bft)
17.01.2017 12:30 1,0 C 86 % 1037,0 hPa 0,0 l/m 2,9 km/h (1 Bft) SW 236 3 min 188 W/m -1,1 C 1,0 C 6,4 km/h (2 Bft)
17.01.2017 12:33 1,2 C 86 % 1036,9 hPa 0,0 l/m 3,0 km/h (1 Bft) SW 236 0 min 142 W/m -0,9 C 1,2 C 4,8 km/h (1 Bft)
17.01.2017 12:36 1,2 C 85 % 1037,0 hPa 0,0 l/m 3,6 km/h (1 Bft) SW 236 3 min 209 W/m -1,0 C 1,2 C 4,8 km/h (1 Bft)
17.01.2017 12:39 1,3 C 84 % 1037,0 hPa 0,0 l/m 3,0 km/h (1 Bft) SW 236 3 min 211 W/m -1,1 C 1,3 C 4,8 km/h (1 Bft)
17.01.2017 12:42 1,4 C 85 % 1037,0 hPa 0,0 l/m 2,3 km/h (1 Bft) SW 236 3 min 251 W/m -0,8 C 1,4 C 3,2 km/h (1 Bft)
17.01.2017 12:45 1,6 C 84 % 1037,0 hPa 0,0 l/m 2,2 km/h (1 Bft) SW 234 3 min 257 W/m -0,8 C 1,6 C 4,8 km/h (1 Bft)
17.01.2017 12:48 1,7 C 84 % 1037,0 hPa 0,0 l/m 2,3 km/h (1 Bft) SW 236 3 min 285 W/m -0,7 C 1,7 C 4,8 km/h (1 Bft)
17.01.2017 12:51 1,9 C 84 % 1037,0 hPa 0,0 l/m 2,8 km/h (1 Bft) SW 233 3 min 271 W/m -0,5 C 1,9 C 4,8 km/h (1 Bft)
17.01.2017 12:54 2,0 C 83 % 1037,0 hPa 0,0 l/m 2,1 km/h (1 Bft) SW 233 3 min 271 W/m -0,6 C 2,0 C 3,2 km/h (1 Bft)
17.01.2017 12:57 1,9 C 83 % 1037,1 hPa 0,0 l/m 2,7 km/h (1 Bft) SW 232 3 min 179 W/m -0,7 C 1,9 C 4,8 km/h (1 Bft)
17.01.2017 13:00 2,1 C 85 % 1037,0 hPa 0,0 l/m 2,5 km/h (1 Bft) SW 232 3 min 185 W/m -0,2 C 2,1 C 6,4 km/h (2 Bft)
17.01.2017 13:03 2,1 C 83 % 1037,0 hPa 0,0 l/m 3,1 km/h (1 Bft) SW 232 3 min 269 W/m -0,5 C 2,1 C 4,8 km/h (1 Bft)
17.01.2017 13:06 1,9 C 83 % 1037,1 hPa 0,0 l/m 3,0 km/h (1 Bft) SW 232 0 min 116 W/m -0,7 C 1,9 C 4,8 km/h (1 Bft)
17.01.2017 13:09 1,8 C 83 % 1037,1 hPa 0,0 l/m 3,1 km/h (1 Bft) SW 232 0 min 102 W/m -0,8 C 1,8 C 4,8 km/h (1 Bft)
17.01.2017 13:12 1,7 C 83 % 1037,1 hPa 0,0 l/m 2,0 km/h (1 Bft) SW 232 0 min 105 W/m -0,9 C 1,7 C 4,8 km/h (1 Bft)
17.01.2017 13:15 1,7 C 84 % 1037,1 hPa 0,0 l/m 2,2 km/h (1 Bft) SW 232 0 min 116 W/m -0,7 C 1,7 C 4,8 km/h (1 Bft)
17.01.2017 13:18 1,7 C 84 % 1037,1 hPa 0,0 l/m 2,4 km/h (1 Bft) SW 232 0 min 114 W/m -0,7 C 1,7 C 4,8 km/h (1 Bft)
17.01.2017 13:21 1,7 C 83 % 1037,1 hPa 0,0 l/m 1,8 km/h (1 Bft) SW 232 0 min 109 W/m -0,9 C 1,7 C 3,2 km/h (1 Bft)
17.01.2017 13:24 1,8 C 84 % 1037,2 hPa 0,0 l/m 0,8 km/h (0 Bft) SW 233 3 min 142 W/m -0,6 C 1,8 C 3,2 km/h (1 Bft)
17.01.2017 13:27 2,0 C 84 % 1037,2 hPa 0,0 l/m 0,6 km/h (0 Bft) SW 233 3 min 318 W/m -0,4 C 2,0 C 1,6 km/h (1 Bft)
17.01.2017 13:30 2,4 C 83 % 1037,2 hPa 0,0 l/m 2,8 km/h (1 Bft) SW 234 3 min 299 W/m -0,2 C 2,4 C 4,8 km/h (1 Bft)
17.01.2017 13:33 2,4 C 81 % 1037,1 hPa 0,0 l/m 3,0 km/h (1 Bft) SW 236 3 min 341 W/m -0,5 C 2,4 C 6,4 km/h (2 Bft)
17.01.2017 13:36 2,4 C 81 % 1037,0 hPa 0,0 l/m 4,9 km/h (1 Bft) SW 229 3 min 211 W/m -0,5 C 2,4 C 8,0 km/h (2 Bft)
17.01.2017 13:39 2,2 C 81 % 1037,1 hPa 0,0 l/m 4,6 km/h (1 Bft) SW 227 3 min 163 W/m -0,7 C 2,2 C 8,0 km/h (2 Bft)
17.01.2017 13:42 2,2 C 81 % 1037,0 hPa 0,0 l/m 4,1 km/h (1 Bft) SW 227 3 min 239 W/m -0,7 C 2,2 C 6,4 km/h (2 Bft)
17.01.2017 13:45 2,3 C 82 % 1037,1 hPa 0,0 l/m 3,6 km/h (1 Bft) SW 229 3 min 325 W/m -0,4 C 2,3 C 4,8 km/h (1 Bft)
17.01.2017 13:48 2,4 C 81 % 1037,0 hPa 0,0 l/m 3,1 km/h (1 Bft) SW 229 3 min 267 W/m -0,5 C 2,4 C 6,4 km/h (2 Bft)
17.01.2017 13:51 2,5 C 81 % 1037,0 hPa 0,0 l/m 2,7 km/h (1 Bft) SW 231 3 min 192 W/m -0,4 C 2,5 C 4,8 km/h (1 Bft)
17.01.2017 13:54 2,4 C 80 % 1037,0 hPa 0,0 l/m 3,0 km/h (1 Bft) SW 231 3 min 216 W/m -0,7 C 2,4 C 6,4 km/h (2 Bft)
17.01.2017 13:57 2,3 C 80 % 1036,9 hPa 0,0 l/m 2,8 km/h (1 Bft) SW 231 3 min 183 W/m -0,8 C 2,3 C 4,8 km/h (1 Bft)
17.01.2017 14:00 2,3 C 81 % 1036,9 hPa 0,0 l/m 1,9 km/h (1 Bft) SW 230 3 min 223 W/m -0,6 C 2,3 C 4,8 km/h (1 Bft)
17.01.2017 14:03 2,4 C 80 % 1036,9 hPa 0,0 l/m 2,5 km/h (1 Bft) SW 230 3 min 130 W/m -0,7 C 2,4 C 4,8 km/h (1 Bft)
17.01.2017 14:06 2,3 C 80 % 1036,9 hPa 0,0 l/m 3,8 km/h (1 Bft) SW 230 0 min 98 W/m -0,8 C 2,3 C 6,4 km/h (2 Bft)
17.01.2017 14:09 2,2 C 80 % 1036,9 hPa 0,0 l/m 2,5 km/h (1 Bft) SW 230 0 min 88 W/m -0,9 C 2,2 C 6,4 km/h (2 Bft)
17.01.2017 14:12 2,2 C 80 % 1036,9 hPa 0,0 l/m 4,8 km/h (1 Bft) SW 230 0 min 88 W/m -0,9 C 2,2 C 6,4 km/h (2 Bft)
17.01.2017 14:15 2,1 C 81 % 1036,9 hPa 0,0 l/m 4,2 km/h (1 Bft) SW 233 0 min 90 W/m -0,8 C 2,1 C 6,4 km/h (2 Bft)
17.01.2017 14:18 2,1 C 81 % 1036,9 hPa 0,0 l/m 5,1 km/h (1 Bft) SW 231 0 min 83 W/m -0,8 C 2,1 C 8,0 km/h (2 Bft)
17.01.2017 14:21 2,0 C 81 % 1036,9 hPa 0,0 l/m 5,2 km/h (1 Bft) W 275 0 min 74 W/m -0,9 C 2,0 C 11,3 km/h (2 Bft)
17.01.2017 14:24 1,9 C 81 % 1036,9 hPa 0,0 l/m 4,4 km/h (1 Bft) W 269 0 min 70 W/m -1,0 C 1,9 C 9,7 km/h (2 Bft)
17.01.2017 14:27 1,8 C 82 % 1036,9 hPa 0,0 l/m 3,1 km/h (1 Bft) W 269 0 min 72 W/m -0,9 C 1,8 C 4,8 km/h (1 Bft)
17.01.2017 14:30 1,8 C 82 % 1036,8 hPa 0,0 l/m 3,8 km/h (1 Bft) W-SW 245 0 min 65 W/m -0,9 C 1,8 C 8,0 km/h (2 Bft)
17.01.2017 14:33 1,7 C 82 % 1036,8 hPa 0,0 l/m 3,6 km/h (1 Bft) W-SW 245 0 min 58 W/m -1,0 C 1,7 C 6,4 km/h (2 Bft)
17.01.2017 14:36 1,7 C 82 % 1036,8 hPa 0,0 l/m 3,7 km/h (1 Bft) W-SW 243 0 min 56 W/m -1,0 C 1,7 C 6,4 km/h (2 Bft)
17.01.2017 14:39 1,6 C 82 % 1036,8 hPa 0,0 l/m 3,8 km/h (1 Bft) W-SW 243 0 min 67 W/m -1,1 C 1,6 C 4,8 km/h (1 Bft)
17.01.2017 14:42 1,6 C 82 % 1036,7 hPa 0,0 l/m 3,5 km/h (1 Bft) W-SW 242 0 min 69 W/m -1,1 C 1,6 C 4,8 km/h (1 Bft)
17.01.2017 14:45 1,6 C 82 % 1036,8 hPa 0,0 l/m 3,6 km/h (1 Bft) W-SW 242 0 min 72 W/m -1,1 C 1,6 C 6,4 km/h (2 Bft)
17.01.2017 14:48 1,6 C 82 % 1036,8 hPa 0,0 l/m 3,9 km/h (1 Bft) W-SW 242 0 min 70 W/m -1,1 C 1,6 C 6,4 km/h (2 Bft)
17.01.2017 14:51 1,6 C 82 % 1036,9 hPa 0,0 l/m 1,7 km/h (1 Bft) W-SW 242 0 min 65 W/m -1,1 C 1,6 C 3,2 km/h (1 Bft)
17.01.2017 14:54 1,7 C 82 % 1037,0 hPa 0,0 l/m 2,1 km/h (1 Bft) W-SW 242 0 min 56 W/m -1,0 C 1,7 C 4,8 km/h (1 Bft)
17.01.2017 14:57 1,7 C 82 % 1037,0 hPa 0,0 l/m 3,7 km/h (1 Bft) W-SW 242 0 min 49 W/m -1,0 C 1,7 C 4,8 km/h (1 Bft)
17.01.2017 15:00 1,6 C 82 % 1037,1 hPa 0,0 l/m 4,1 km/h (1 Bft) W-SW 241 0 min 47 W/m -1,1 C 1,6 C 4,8 km/h (1 Bft)
17.01.2017 15:03 1,6 C 82 % 1037,0 hPa 0,0 l/m 3,4 km/h (1 Bft) W-SW 242 0 min 46 W/m -1,1 C 1,6 C 4,8 km/h (1 Bft)
17.01.2017 15:06 1,6 C 82 % 1037,0 hPa 0,0 l/m 3,2 km/h (1 Bft) W-SW 242 0 min 47 W/m -1,1 C 1,6 C 4,8 km/h (1 Bft)
17.01.2017 15:09 1,6 C 82 % 1037,1 hPa 0,0 l/m 2,8 km/h (1 Bft) W-SW 241 0 min 46 W/m -1,1 C 1,6 C 6,4 km/h (2 Bft)
17.01.2017 15:12 1,6 C 83 % 1037,1 hPa 0,0 l/m 3,1 km/h (1 Bft) W-SW 243 0 min 42 W/m -1,0 C 1,6 C 6,4 km/h (2 Bft)
17.01.2017 15:15 1,5 C 83 % 1037,0 hPa 0,0 l/m 3,6 km/h (1 Bft) W-SW 243 0 min 39 W/m -1,1 C 1,5 C 4,8 km/h (1 Bft)
17.01.2017 15:18 1,4 C 83 % 1037,1 hPa 0,0 l/m 2,9 km/h (1 Bft) W-SW 242 0 min 39 W/m -1,2 C 1,4 C 6,4 km/h (2 Bft)
17.01.2017 15:21 1,4 C 83 % 1037,1 hPa 0,0 l/m 2,5 km/h (1 Bft) W-SW 242 0 min 42 W/m -1,2 C 1,4 C 4,8 km/h (1 Bft)
17.01.2017 15:24 1,4 C 83 % 1037,0 hPa 0,0 l/m 3,0 km/h (1 Bft) W-SW 242 0 min 40 W/m -1,2 C 1,4 C 4,8 km/h (1 Bft)
17.01.2017 15:27 1,3 C 83 % 1037,1 hPa 0,0 l/m 3,5 km/h (1 Bft) W-SW 242 0 min 39 W/m -1,3 C 1,3 C 6,4 km/h (2 Bft)
17.01.2017 15:30 1,3 C 83 % 1037,1 hPa 0,0 l/m 3,5 km/h (1 Bft) W-SW 242 0 min 33 W/m -1,3 C 1,3 C 6,4 km/h (2 Bft)
17.01.2017 15:33 1,3 C 82 % 1037,1 hPa 0,0 l/m 3,8 km/h (1 Bft) W-SW 242 0 min 32 W/m -1,4 C 1,3 C 4,8 km/h (1 Bft)
17.01.2017 15:36 1,3 C 82 % 1037,1 hPa 0,0 l/m 3,9 km/h (1 Bft) W-SW 242 0 min 30 W/m -1,4 C 1,3 C 6,4 km/h (2 Bft)
17.01.2017 15:39 1,3 C 82 % 1037,1 hPa 0,0 l/m 3,5 km/h (1 Bft) W-SW 242 0 min 30 W/m -1,4 C 1,3 C 6,4 km/h (2 Bft)
17.01.2017 15:42 1,2 C 83 % 1037,2 hPa 0,0 l/m 1,5 km/h (1 Bft) W-SW 242 0 min 28 W/m -1,4 C 1,2 C 3,2 km/h (1 Bft)
17.01.2017 15:45 1,2 C 83 % 1037,1 hPa 0,0 l/m 1,2 km/h (1 Bft) W-SW 242 0 min 25 W/m -1,4 C 1,2 C 3,2 km/h (1 Bft)
17.01.2017 15:48 1,2 C 84 % 1037,1 hPa 0,0 l/m 0,7 km/h (0 Bft) W-SW 242 0 min 21 W/m -1,2 C 1,2 C 1,6 km/h (1 Bft)
17.01.2017 15:51 1,1 C 84 % 1037,1 hPa 0,0 l/m 1,6 km/h (1 Bft) W-SW 242 0 min 18 W/m -1,3 C 1,1 C 3,2 km/h (1 Bft)
17.01.2017 15:54 1,1 C 84 % 1037,1 hPa 0,0 l/m 1,5 km/h (1 Bft) W-SW 242 0 min 14 W/m -1,3 C 1,1 C 3,2 km/h (1 Bft)
17.01.2017 15:57 1,0 C 84 % 1037,0 hPa 0,0 l/m 0,9 km/h (0 Bft) W-SW 242 0 min 14 W/m -1,4 C 1,0 C 1,6 km/h (1 Bft)
17.01.2017 16:00 0,9 C 85 % 1037,0 hPa 0,0 l/m 1,0 km/h (0 Bft) W-SW 242 0 min 12 W/m -1,3 C 0,9 C 1,6 km/h (1 Bft)
17.01.2017 16:03 0,8 C 85 % 1037,0 hPa 0,0 l/m 1,4 km/h (1 Bft) W-SW 242 0 min 14 W/m -1,4 C 0,8 C 3,2 km/h (1 Bft)
17.01.2017 16:06 0,8 C 85 % 1037,0 hPa 0,0 l/m 1,6 km/h (1 Bft) W-SW 242 0 min 18 W/m -1,4 C 0,8 C 3,2 km/h (1 Bft)
17.01.2017 16:09 0,7 C 86 % 1037,0 hPa 0,0 l/m 1,5 km/h (1 Bft) W-SW 242 0 min 18 W/m -1,4 C 0,7 C 3,2 km/h (1 Bft)
17.01.2017 16:12 0,7 C 86 % 1037,0 hPa 0,0 l/m 2,0 km/h (1 Bft) W-SW 242 0 min 14 W/m -1,4 C 0,7 C 3,2 km/h (1 Bft)
17.01.2017 16:15 0,7 C 86 % 1037,1 hPa 0,0 l/m 1,3 km/h (1 Bft) W-SW 242 0 min 12 W/m -1,4 C 0,7 C 3,2 km/h (1 Bft)
17.01.2017 16:18 0,6 C 87 % 1037,1 hPa 0,0 l/m 0,0 km/h (0 Bft) W-SW 242 0 min 9 W/m -1,3 C 0,6 C 0,0 km/h (0 Bft)
17.01.2017 16:21 0,5 C 87 % 1037,2 hPa 0,0 l/m 0,5 km/h (0 Bft) W-SW 242 0 min 7 W/m -1,4 C 0,5 C 1,6 km/h (1 Bft)
17.01.2017 16:24 0,5 C 87 % 1037,2 hPa 0,0 l/m 0,3 km/h (0 Bft) W-SW 242 0 min 5 W/m -1,4 C 0,5 C 1,6 km/h (1 Bft)
17.01.2017 16:27 0,4 C 87 % 1037,1 hPa 0,0 l/m 0,0 km/h (0 Bft) W-SW 242 0 min 5 W/m -1,5 C 0,4 C 0,0 km/h (0 Bft)
17.01.2017 16:30 0,3 C 87 % 1037,1 hPa 0,0 l/m 1,1 km/h (1 Bft) W-SW 242 0 min 5 W/m -1,6 C 0,3 C 3,2 km/h (1 Bft)
17.01.2017 16:33 0,3 C 87 % 1037,1 hPa 0,0 l/m 2,1 km/h (1 Bft) W-SW 242 0 min 5 W/m -1,6 C 0,3 C 3,2 km/h (1 Bft)
17.01.2017 16:36 0,2 C 87 % 1037,1 hPa 0,0 l/m 1,3 km/h (1 Bft) W-SW 242 0 min 0 W/m -1,7 C 0,2 C 3,2 km/h (1 Bft)
17.01.2017 16:39 0,2 C 87 % 1037,1 hPa 0,0 l/m 1,4 km/h (1 Bft) W-SW 242 0 min 0 W/m -1,7 C 0,2 C 3,2 km/h (1 Bft)
17.01.2017 16:42 0,1 C 87 % 1037,1 hPa 0,0 l/m 0,2 km/h (0 Bft) W-SW 242 0 min 0 W/m -1,8 C 0,1 C 1,6 km/h (1 Bft)
17.01.2017 16:45 0,1 C 88 % 1037,1 hPa 0,0 l/m 1,1 km/h (1 Bft) W-SW 242 0 min 0 W/m -1,6 C 0,1 C 1,6 km/h (1 Bft)
17.01.2017 16:48 -0,1 C 88 % 1037,1 hPa 0,0 l/m 1,1 km/h (1 Bft) W-SW 242 0 min 0 W/m -1,8 C -0,1 C 1,6 km/h (1 Bft)
17.01.2017 16:51 -0,1 C 88 % 1037,2 hPa 0,0 l/m 0,5 km/h (0 Bft) W-SW 242 0 min 0 W/m -1,8 C -0,1 C 1,6 km/h (1 Bft)
17.01.2017 16:54 -0,2 C 89 % 1037,2 hPa 0,0 l/m 0,0 km/h (0 Bft) W-SW 242 0 min 0 W/m -1,8 C -0,2 C 1,6 km/h (1 Bft)
17.01.2017 16:57 -0,2 C 89 % 1037,2 hPa 0,0 l/m 0,1 km/h (0 Bft) W-SW 242 0 min 0 W/m -1,8 C -0,2 C 1,6 km/h (1 Bft)
17.01.2017 17:00 -0,3 C 89 % 1037,2 hPa 0,0 l/m 0,0 km/h (0 Bft) W-SW 242 0 min 0 W/m -1,9 C -0,3 C 1,6 km/h (1 Bft)
17.01.2017 17:03 -0,3 C 90 % 1037,2 hPa 0,0 l/m 0,5 km/h (0 Bft) W-SW 242 0 min 0 W/m -1,7 C -0,3 C 1,6 km/h (1 Bft)
17.01.2017 17:06 -0,3 C 90 % 1037,3 hPa 0,0 l/m 0,5 km/h (0 Bft) W-SW 242 0 min 0 W/m -1,7 C -0,3 C 1,6 km/h (1 Bft)
17.01.2017 17:09 -0,3 C 90 % 1037,3 hPa 0,0 l/m 0,7 km/h (0 Bft) W-SW 242 0 min 0 W/m -1,7 C -0,3 C 1,6 km/h (1 Bft)
17.01.2017 17:12 -0,3 C 90 % 1037,3 hPa 0,0 l/m 0,8 km/h (0 Bft) W-SW 242 0 min 0 W/m -1,7 C -0,3 C 1,6 km/h (1 Bft)
17.01.2017 17:15 -0,3 C 91 % 1037,3 hPa 0,0 l/m 1,0 km/h (0 Bft) W-SW 242 0 min 0 W/m -1,6 C -0,3 C 3,2 km/h (1 Bft)
17.01.2017 17:18 -0,2 C 91 % 1037,4 hPa 0,0 l/m 0,4 km/h (0 Bft) W-SW 242 0 min 0 W/m -1,5 C -0,2 C 1,6 km/h (1 Bft)
17.01.2017 17:21 -0,2 C 91 % 1037,4 hPa 0,0 l/m 0,6 km/h (0 Bft) W-SW 242 0 min 0 W/m -1,5 C -0,2 C 1,6 km/h (1 Bft)
17.01.2017 17:24 -0,2 C 91 % 1037,4 hPa 0,0 l/m 1,5 km/h (1 Bft) W-SW 242 0 min 0 W/m -1,5 C -0,2 C 3,2 km/h (1 Bft)
17.01.2017 17:27 -0,2 C 91 % 1037,4 hPa 0,0 l/m 1,0 km/h (0 Bft) W-SW 242 0 min 0 W/m -1,5 C -0,2 C 3,2 km/h (1 Bft)
17.01.2017 17:30 -0,2 C 91 % 1037,5 hPa 0,0 l/m 0,9 km/h (0 Bft) W-SW 242 0 min 0 W/m -1,5 C -0,2 C 1,6 km/h (1 Bft)
17.01.2017 17:33 -0,1 C 91 % 1037,5 hPa 0,0 l/m 1,0 km/h (0 Bft) W-SW 242 0 min 0 W/m -1,4 C -0,1 C 3,2 km/h (1 Bft)
17.01.2017 17:36 -0,1 C 92 % 1037,4 hPa 0,0 l/m 2,2 km/h (1 Bft) W-SW 242 0 min 0 W/m -1,2 C -0,1 C 4,8 km/h (1 Bft)
17.01.2017 17:39 -0,1 C 91 % 1037,5 hPa 0,0 l/m 3,1 km/h (1 Bft) W-SW 242 0 min 0 W/m -1,4 C -0,1 C 4,8 km/h (1 Bft)
17.01.2017 17:42 -0,1 C 91 % 1037,4 hPa 0,0 l/m 2,6 km/h (1 Bft) W-SW 242 0 min 0 W/m -1,4 C -0,1 C 4,8 km/h (1 Bft)
17.01.2017 17:45 -0,1 C 91 % 1037,5 hPa 0,0 l/m 2,0 km/h (1 Bft) W-SW 242 0 min 0 W/m -1,4 C -0,1 C 3,2 km/h (1 Bft)
17.01.2017 17:48 -0,1 C 91 % 1037,5 hPa 0,0 l/m 1,6 km/h (1 Bft) W-SW 242 0 min 0 W/m -1,4 C -0,1 C 3,2 km/h (1 Bft)
17.01.2017 17:51 -0,2 C 91 % 1037,5 hPa 0,0 l/m 2,5 km/h (1 Bft) W-SW 242 0 min 0 W/m -1,5 C -0,2 C 4,8 km/h (1 Bft)
17.01.2017 17:54 -0,3 C 91 % 1037,4 hPa 0,0 l/m 2,9 km/h (1 Bft) W-SW 242 0 min 0 W/m -1,6 C -0,3 C 4,8 km/h (1 Bft)
17.01.2017 17:57 -0,4 C 91 % 1037,4 hPa 0,0 l/m 2,1 km/h (1 Bft) W-SW 242 0 min 0 W/m -1,7 C -0,4 C 3,2 km/h (1 Bft)
17.01.2017 18:00 -0,5 C 91 % 1037,6 hPa 0,0 l/m 1,6 km/h (1 Bft) W-SW 242 0 min 0 W/m -1,8 C -0,5 C 3,2 km/h (1 Bft)
17.01.2017 18:03 -0,6 C 91 % 1037,6 hPa 0,0 l/m 2,4 km/h (1 Bft) W-SW 242 0 min 0 W/m -1,9 C -0,6 C 3,2 km/h (1 Bft)
17.01.2017 18:06 -0,7 C 91 % 1037,5 hPa 0,0 l/m 2,6 km/h (1 Bft) W-SW 242 0 min 0 W/m -2,0 C -0,7 C 4,8 km/h (1 Bft)
17.01.2017 18:09 -0,8 C 92 % 1037,5 hPa 0,0 l/m 2,3 km/h (1 Bft) W-SW 242 0 min 0 W/m -1,9 C -0,8 C 4,8 km/h (1 Bft)
17.01.2017 18:12 -0,8 C 92 % 1037,5 hPa 0,0 l/m 2,0 km/h (1 Bft) W-SW 242 0 min 0 W/m -1,9 C -0,8 C 3,2 km/h (1 Bft)
17.01.2017 18:15 -0,8 C 92 % 1037,4 hPa 0,0 l/m 2,1 km/h (1 Bft) W-SW 242 0 min 0 W/m -1,9 C -0,8 C 3,2 km/h (1 Bft)
17.01.2017 18:18 -0,8 C 92 % 1037,5 hPa 0,0 l/m 2,5 km/h (1 Bft) W-SW 242 0 min 0 W/m -1,9 C -0,8 C 4,8 km/h (1 Bft)
17.01.2017 18:21 -0,7 C 92 % 1037,5 hPa 0,0 l/m 3,0 km/h (1 Bft) W-SW 242 0 min 0 W/m -1,8 C -0,7 C 4,8 km/h (1 Bft)
17.01.2017 18:24 -0,7 C 92 % 1037,5 hPa 0,0 l/m 3,5 km/h (1 Bft) W-SW 241 0 min 0 W/m -1,8 C -0,7 C 6,4 km/h (2 Bft)
17.01.2017 18:27 -0,7 C 92 % 1037,5 hPa 0,0 l/m 4,2 km/h (1 Bft) W-SW 240 0 min 0 W/m -1,8 C -0,7 C 6,4 km/h (2 Bft)
17.01.2017 18:30 -0,8 C 92 % 1037,5 hPa 0,0 l/m 3,5 km/h (1 Bft) W-SW 240 0 min 0 W/m -1,9 C -0,8 C 4,8 km/h (1 Bft)
17.01.2017 18:33 -0,9 C 92 % 1037,5 hPa 0,0 l/m 2,2 km/h (1 Bft) W-SW 240 0 min 0 W/m -2,0 C -0,9 C 4,8 km/h (1 Bft)
17.01.2017 18:36 -0,9 C 92 % 1037,6 hPa 0,0 l/m 2,1 km/h (1 Bft) W-SW 240 0 min 0 W/m -2,0 C -0,9 C 3,2 km/h (1 Bft)
17.01.2017 18:39 -0,9 C 93 % 1037,7 hPa 0,0 l/m 2,3 km/h (1 Bft) W-SW 240 0 min 0 W/m -1,9 C -0,9 C 3,2 km/h (1 Bft)
17.01.2017 18:42 -0,9 C 93 % 1037,6 hPa 0,0 l/m 3,1 km/h (1 Bft) W-SW 240 0 min 0 W/m -1,9 C -0,9 C 6,4 km/h (2 Bft)
17.01.2017 18:45 -0,8 C 93 % 1037,7 hPa 0,0 l/m 4,0 km/h (1 Bft) SW 232 0 min 0 W/m -1,8 C -0,8 C 6,4 km/h (2 Bft)
17.01.2017 18:48 -0,8 C 93 % 1037,7 hPa 0,0 l/m 4,0 km/h (1 Bft) SW 232 0 min 0 W/m -1,8 C -0,8 C 8,0 km/h (2 Bft)
17.01.2017 18:51 -0,8 C 93 % 1037,7 hPa 0,0 l/m 3,5 km/h (1 Bft) SW 232 0 min 0 W/m -1,8 C -0,8 C 4,8 km/h (1 Bft)
17.01.2017 18:54 -0,8 C 93 % 1037,7 hPa 0,0 l/m 4,6 km/h (1 Bft) SW 232 0 min 0 W/m -1,8 C -0,8 C 8,0 km/h (2 Bft)
17.01.2017 18:57 -0,8 C 93 % 1037,7 hPa 0,0 l/m 4,1 km/h (1 Bft) SW 232 0 min 0 W/m -1,8 C -0,8 C 6,4 km/h (2 Bft)
17.01.2017 19:00 -0,8 C 93 % 1037,7 hPa 0,0 l/m 4,4 km/h (1 Bft) SW 232 0 min 0 W/m -1,8 C -0,8 C 6,4 km/h (2 Bft)
17.01.2017 19:03 -0,8 C 93 % 1037,7 hPa 0,0 l/m 4,6 km/h (1 Bft) S-SW 209 0 min 0 W/m -1,8 C -0,8 C 8,0 km/h (2 Bft)
17.01.2017 19:06 -0,8 C 93 % 1037,6 hPa 0,0 l/m 4,8 km/h (1 Bft) S-SW 209 0 min 0 W/m -1,8 C -0,8 C 8,0 km/h (2 Bft)
17.01.2017 19:09 -0,8 C 94 % 1037,7 hPa 0,0 l/m 5,2 km/h (1 Bft) S-SW 212 0 min 0 W/m -1,6 C -0,8 C 8,0 km/h (2 Bft)
17.01.2017 19:12 -0,7 C 94 % 1037,7 hPa 0,0 l/m 5,3 km/h (1 Bft) S-SW 212 0 min 0 W/m -1,5 C -0,7 C 8,0 km/h (2 Bft)
17.01.2017 19:15 -0,6 C 94 % 1037,8 hPa 0,0 l/m 6,6 km/h (2 Bft) SW 222 0 min 0 W/m -1,4 C -0,8 C 9,7 km/h (2 Bft)
17.01.2017 19:18 -0,6 C 94 % 1037,9 hPa 0,0 l/m 4,7 km/h (1 Bft) S-SW 203 0 min 0 W/m -1,4 C -0,6 C 8,0 km/h (2 Bft)
17.01.2017 19:21 -0,6 C 94 % 1037,8 hPa 0,0 l/m 4,5 km/h (1 Bft) S-SW 205 0 min 0 W/m -1,4 C -0,6 C 6,4 km/h (2 Bft)
17.01.2017 19:24 -0,6 C 94 % 1037,9 hPa 0,0 l/m 4,6 km/h (1 Bft) S-SW 205 0 min 0 W/m -1,4 C -0,6 C 6,4 km/h (2 Bft)
17.01.2017 19:27 -0,6 C 94 % 1037,9 hPa 0,0 l/m 3,9 km/h (1 Bft) S-SW 205 0 min 0 W/m -1,4 C -0,6 C 6,4 km/h (2 Bft)
17.01.2017 19:30 -0,6 C 94 % 1037,7 hPa 0,0 l/m 4,6 km/h (1 Bft) S-SW 205 0 min 0 W/m -1,4 C -0,6 C 6,4 km/h (2 Bft)
17.01.2017 19:33 -0,6 C 94 % 1037,9 hPa 0,0 l/m 4,4 km/h (1 Bft) S-SW 205 0 min 0 W/m -1,4 C -0,6 C 6,4 km/h (2 Bft)
17.01.2017 19:36 -0,7 C 94 % 1038,0 hPa 0,0 l/m 1,9 km/h (1 Bft) S-SW 205 0 min 0 W/m -1,5 C -0,7 C 3,2 km/h (1 Bft)
17.01.2017 19:39 -0,8 C 94 % 1038,0 hPa 0,0 l/m 3,1 km/h (1 Bft) S-SW 205 0 min 0 W/m -1,6 C -0,8 C 4,8 km/h (1 Bft)
17.01.2017 19:42 -0,9 C 94 % 1038,1 hPa 0,0 l/m 3,0 km/h (1 Bft) S-SW 205 0 min 0 W/m -1,7 C -0,9 C 4,8 km/h (1 Bft)
17.01.2017 19:45 -0,9 C 95 % 1038,1 hPa 0,0 l/m 3,7 km/h (1 Bft) S-SW 205 0 min 0 W/m -1,6 C -0,9 C 6,4 km/h (2 Bft)
17.01.2017 19:48 -0,9 C 95 % 1038,1 hPa 0,0 l/m 3,5 km/h (1 Bft) S-SW 205 0 min 0 W/m -1,6 C -0,9 C 4,8 km/h (1 Bft)
17.01.2017 19:51 -0,9 C 95 % 1038,1 hPa 0,0 l/m 2,9 km/h (1 Bft) S-SW 205 0 min 0 W/m -1,6 C -0,9 C 4,8 km/h (1 Bft)
17.01.2017 19:54 -0,9 C 95 % 1038,2 hPa 0,0 l/m 3,8 km/h (1 Bft) S-SW 203 0 min 0 W/m -1,6 C -0,9 C 6,4 km/h (2 Bft)
17.01.2017 19:57 -1,0 C 95 % 1038,2 hPa 0,0 l/m 3,5 km/h (1 Bft) S-SW 204 0 min 0 W/m -1,7 C -1,0 C 4,8 km/h (1 Bft)
17.01.2017 20:00 -0,9 C 95 % 1038,2 hPa 0,0 l/m 4,6 km/h (1 Bft) S-SW 205 0 min 0 W/m -1,6 C -0,9 C 8,0 km/h (2 Bft)
17.01.2017 20:03 -0,8 C 95 % 1038,2 hPa 0,0 l/m 5,5 km/h (2 Bft) S-SW 206 0 min 0 W/m -1,5 C -0,8 C 8,0 km/h (2 Bft)
17.01.2017 20:06 -0,7 C 95 % 1038,2 hPa 0,0 l/m 3,8 km/h (1 Bft) S-SW 205 0 min 0 W/m -1,4 C -0,7 C 6,4 km/h (2 Bft)
17.01.2017 20:09 -0,7 C 95 % 1038,2 hPa 0,0 l/m 2,9 km/h (1 Bft) S-SW 206 0 min 0 W/m -1,4 C -0,7 C 4,8 km/h (1 Bft)
17.01.2017 20:12 -0,7 C 95 % 1038,3 hPa 0,0 l/m 3,7 km/h (1 Bft) S-SW 202 0 min 0 W/m -1,4 C -0,7 C 8,0 km/h (2 Bft)
17.01.2017 20:15 -0,6 C 95 % 1038,4 hPa 0,0 l/m 3,4 km/h (1 Bft) S-SW 202 0 min 0 W/m -1,3 C -0,6 C 4,8 km/h (1 Bft)
17.01.2017 20:18 -0,6 C 95 % 1038,5 hPa 0,0 l/m 3,5 km/h (1 Bft) S-SW 211 0 min 0 W/m -1,3 C -0,6 C 6,4 km/h (2 Bft)
17.01.2017 20:21 -0,6 C 95 % 1038,4 hPa 0,0 l/m 4,1 km/h (1 Bft) S-SW 209 0 min 0 W/m -1,3 C -0,6 C 6,4 km/h (2 Bft)
17.01.2017 20:24 -0,5 C 95 % 1038,4 hPa 0,0 l/m 4,7 km/h (1 Bft) S-SW 207 0 min 0 W/m -1,2 C -0,5 C 9,7 km/h (2 Bft)
17.01.2017 20:27 -0,5 C 95 % 1038,3 hPa 0,0 l/m 6,2 km/h (2 Bft) S-SW 205 0 min 0 W/m -1,2 C -0,5 C 9,7 km/h (2 Bft)
17.01.2017 20:30 -0,5 C 95 % 1038,3 hPa 0,0 l/m 6,0 km/h (2 Bft) S-SW 210 0 min 0 W/m -1,2 C -0,5 C 11,3 km/h (2 Bft)
17.01.2017 20:33 -0,5 C 95 % 1038,3 hPa 0,0 l/m 6,5 km/h (2 Bft) S-SW 194 0 min 0 W/m -1,2 C -0,6 C 11,3 km/h (2 Bft)
17.01.2017 20:36 -0,6 C 95 % 1038,3 hPa 0,0 l/m 6,2 km/h (2 Bft) S-SW 204 0 min 0 W/m -1,3 C -0,6 C 11,3 km/h (2 Bft)
17.01.2017 20:39 -0,6 C 95 % 1038,2 hPa 0,0 l/m 6,8 km/h (2 Bft) SW 226 0 min 0 W/m -1,3 C -1,0 C 11,3 km/h (2 Bft)
17.01.2017 20:42 -0,6 C 95 % 1038,2 hPa 0,0 l/m 6,5 km/h (2 Bft) SW 221 0 min 0 W/m -1,3 C -0,7 C 9,7 km/h (2 Bft)
17.01.2017 20:45 -0,6 C 95 % 1038,2 hPa 0,0 l/m 5,7 km/h (2 Bft) S-SW 207 0 min 0 W/m -1,3 C -0,6 C 8,0 km/h (2 Bft)
17.01.2017 20:48 -0,6 C 95 % 1038,2 hPa 0,0 l/m 4,9 km/h (1 Bft) S-SW 207 0 min 0 W/m -1,3 C -0,6 C 6,4 km/h (2 Bft)
17.01.2017 20:51 -0,7 C 95 % 1038,2 hPa 0,0 l/m 5,4 km/h (2 Bft) S-SW 209 0 min 0 W/m -1,4 C -0,7 C 8,0 km/h (2 Bft)
17.01.2017 20:54 -0,7 C 95 % 1038,2 hPa 0,0 l/m 5,6 km/h (2 Bft) S-SW 210 0 min 0 W/m -1,4 C -0,7 C 8,0 km/h (2 Bft)
17.01.2017 20:57 -0,7 C 95 % 1038,2 hPa 0,0 l/m 5,0 km/h (1 Bft) S-SW 209 0 min 0 W/m -1,4 C -0,7 C 6,4 km/h (2 Bft)
17.01.2017 21:00 -0,8 C 95 % 1038,1 hPa 0,0 l/m 2,8 km/h (1 Bft) S-SW 209 0 min 0 W/m -1,5 C -0,8 C 4,8 km/h (1 Bft)
17.01.2017 21:03 -0,8 C 95 % 1038,1 hPa 0,0 l/m 3,1 km/h (1 Bft) S-SW 207 0 min 0 W/m -1,5 C -0,8 C 6,4 km/h (2 Bft)
17.01.2017 21:06 -0,9 C 95 % 1038,1 hPa 0,0 l/m 3,4 km/h (1 Bft) S-SW 208 0 min 0 W/m -1,6 C -0,9 C 4,8 km/h (1 Bft)
17.01.2017 21:09 -1,0 C 95 % 1038,2 hPa 0,0 l/m 4,4 km/h (1 Bft) S-SW 204 0 min 0 W/m -1,7 C -1,0 C 8,0 km/h (2 Bft)
17.01.2017 21:12 -1,1 C 95 % 1038,2 hPa 0,0 l/m 4,0 km/h (1 Bft) S-SW 204 0 min 0 W/m -1,8 C -1,1 C 6,4 km/h (2 Bft)
17.01.2017 21:15 -1,2 C 95 % 1038,2 hPa 0,0 l/m 3,8 km/h (1 Bft) S-SW 204 0 min 0 W/m -1,9 C -1,2 C 4,8 km/h (1 Bft)
17.01.2017 21:18 -1,3 C 95 % 1038,3 hPa 0,0 l/m 4,2 km/h (1 Bft) S 188 0 min 0 W/m -2,0 C -1,3 C 6,4 km/h (2 Bft)
17.01.2017 21:21 -1,3 C 95 % 1038,3 hPa 0,0 l/m 4,6 km/h (1 Bft) S 186 0 min 0 W/m -2,0 C -1,3 C 8,0 km/h (2 Bft)
17.01.2017 21:24 -1,3 C 95 % 1038,4 hPa 0,0 l/m 4,5 km/h (1 Bft) S 190 0 min 0 W/m -2,0 C -1,3 C 8,0 km/h (2 Bft)
17.01.2017 21:27 -1,3 C 95 % 1038,3 hPa 0,0 l/m 5,5 km/h (2 Bft) S-SW 201 0 min 0 W/m -2,0 C -1,3 C 8,0 km/h (2 Bft)
17.01.2017 21:30 -1,2 C 95 % 1038,3 hPa 0,0 l/m 5,2 km/h (1 Bft) S-SW 202 0 min 0 W/m -1,9 C -1,2 C 8,0 km/h (2 Bft)
17.01.2017 21:33 -1,3 C 95 % 1038,3 hPa 0,0 l/m 5,3 km/h (1 Bft) S-SW 204 0 min 0 W/m -2,0 C -1,3 C 8,0 km/h (2 Bft)
17.01.2017 21:36 -1,3 C 95 % 1038,3 hPa 0,0 l/m 5,9 km/h (2 Bft) S-SW 206 0 min 0 W/m -2,0 C -1,3 C 9,7 km/h (2 Bft)
17.01.2017 21:39 -1,3 C 95 % 1038,3 hPa 0,0 l/m 5,6 km/h (2 Bft) S-SW 211 0 min 0 W/m -2,0 C -1,3 C 8,0 km/h (2 Bft)
17.01.2017 21:42 -1,4 C 95 % 1038,3 hPa 0,0 l/m 6,5 km/h (2 Bft) S-SW 208 0 min 0 W/m -2,1 C -1,5 C 9,7 km/h (2 Bft)
17.01.2017 21:45 -1,4 C 95 % 1038,3 hPa 0,0 l/m 6,6 km/h (2 Bft) S-SW 205 0 min 0 W/m -2,1 C -1,6 C 9,7 km/h (2 Bft)
17.01.2017 21:48 -1,4 C 95 % 1038,3 hPa 0,0 l/m 6,2 km/h (2 Bft) S-SW 211 0 min 0 W/m -2,1 C -1,4 C 8,0 km/h (2 Bft)
17.01.2017 21:51 -1,4 C 95 % 1038,4 hPa 0,0 l/m 4,5 km/h (1 Bft) S-SW 205 0 min 0 W/m -2,1 C -1,4 C 8,0 km/h (2 Bft)
17.01.2017 21:54 -1,5 C 95 % 1038,4 hPa 0,0 l/m 4,8 km/h (1 Bft) S-SW 205 0 min 0 W/m -2,2 C -1,5 C 8,0 km/h (2 Bft)
17.01.2017 21:57 -1,6 C 95 % 1038,4 hPa 0,0 l/m 5,4 km/h (2 Bft) S-SW 205 0 min 0 W/m -2,3 C -1,6 C 9,7 km/h (2 Bft)
17.01.2017 22:00 -1,6 C 95 % 1038,4 hPa 0,0 l/m 5,6 km/h (2 Bft) SW 214 0 min 0 W/m -2,3 C -1,6 C 9,7 km/h (2 Bft)
17.01.2017 22:03 -1,6 C 95 % 1038,4 hPa 0,0 l/m 5,2 km/h (1 Bft) S-SW 211 0 min 0 W/m -2,3 C -1,6 C 8,0 km/h (2 Bft)
17.01.2017 22:06 -1,6 C 95 % 1038,4 hPa 0,0 l/m 5,8 km/h (2 Bft) SW 214 0 min 0 W/m -2,3 C -1,6 C 8,0 km/h (2 Bft)
17.01.2017 22:09 -1,6 C 95 % 1038,4 hPa 0,0 l/m 4,9 km/h (1 Bft) S-SW 203 0 min 0 W/m -2,3 C -1,6 C 8,0 km/h (2 Bft)
17.01.2017 22:12 -1,7 C 95 % 1038,4 hPa 0,0 l/m 5,8 km/h (2 Bft) S-SW 205 0 min 0 W/m -2,4 C -1,7 C 9,7 km/h (2 Bft)
17.01.2017 22:15 -1,7 C 95 % 1038,4 hPa 0,0 l/m 5,7 km/h (2 Bft) S-SW 209 0 min 0 W/m -2,4 C -1,7 C 9,7 km/h (2 Bft)
17.01.2017 22:18 -1,6 C 96 % 1038,5 hPa 0,0 l/m 5,7 km/h (2 Bft) S-SW 213 0 min 0 W/m -2,2 C -1,6 C 8,0 km/h (2 Bft)
17.01.2017 22:21 -1,6 C 96 % 1038,4 hPa 0,0 l/m 6,8 km/h (2 Bft) S-SW 205 0 min 0 W/m -2,2 C -2,0 C 11,3 km/h (2 Bft)
17.01.2017 22:24 -1,6 C 96 % 1038,4 hPa 0,0 l/m 6,6 km/h (2 Bft) S-SW 212 0 min 0 W/m -2,2 C -1,8 C 9,7 km/h (2 Bft)
17.01.2017 22:27 -1,6 C 96 % 1038,4 hPa 0,0 l/m 6,3 km/h (2 Bft) S-SW 204 0 min 0 W/m -2,2 C -1,6 C 11,3 km/h (2 Bft)
17.01.2017 22:30 -1,6 C 96 % 1038,3 hPa 0,0 l/m 6,9 km/h (2 Bft) SW 223 0 min 0 W/m -2,2 C -2,1 C 11,3 km/h (2 Bft)
17.01.2017 22:33 -1,6 C 96 % 1038,3 hPa 0,0 l/m 6,5 km/h (2 Bft) SW 215 0 min 0 W/m -2,2 C -1,7 C 11,3 km/h (2 Bft)
17.01.2017 22:36 -1,6 C 96 % 1038,3 hPa 0,0 l/m 6,9 km/h (2 Bft) W-SW 240 0 min 0 W/m -2,2 C -2,1 C 9,7 km/h (2 Bft)
17.01.2017 22:39 -1,6 C 96 % 1038,3 hPa 0,0 l/m 7,5 km/h (2 Bft) S-SW 206 0 min 0 W/m -2,2 C -2,8 C 9,7 km/h (2 Bft)
17.01.2017 22:42 -1,6 C 96 % 1038,4 hPa 0,0 l/m 7,2 km/h (2 Bft) SW 219 0 min 0 W/m -2,2 C -2,5 C 11,3 km/h (2 Bft)
17.01.2017 22:45 -1,6 C 96 % 1038,3 hPa 0,0 l/m 7,3 km/h (2 Bft) S-SW 196 0 min 0 W/m -2,2 C -2,6 C 11,3 km/h (2 Bft)
17.01.2017 22:48 -1,6 C 96 % 1038,3 hPa 0,0 l/m 6,5 km/h (2 Bft) S-SW 206 0 min 0 W/m -2,2 C -1,7 C 9,7 km/h (2 Bft)
17.01.2017 22:51 -1,6 C 96 % 1038,4 hPa 0,0 l/m 6,1 km/h (2 Bft) S-SW 206 0 min 0 W/m -2,2 C -1,6 C 12,9 km/h (3 Bft)
17.01.2017 22:54 -1,6 C 96 % 1038,4 hPa 0,0 l/m 6,9 km/h (2 Bft) SW 221 0 min 0 W/m -2,2 C -2,1 C 11,3 km/h (2 Bft)
17.01.2017 22:57 -1,6 C 96 % 1038,4 hPa 0,0 l/m 6,7 km/h (2 Bft) SW 230 0 min 0 W/m -2,2 C -1,9 C 9,7 km/h (2 Bft)
17.01.2017 23:00 -1,7 C 96 % 1038,3 hPa 0,0 l/m 7,2 km/h (2 Bft) S-SW 209 0 min 0 W/m -2,3 C -2,6 C 11,3 km/h (2 Bft)
17.01.2017 23:03 -1,6 C 96 % 1038,4 hPa 0,0 l/m 6,8 km/h (2 Bft) S-SW 213 0 min 0 W/m -2,2 C -2,0 C 11,3 km/h (2 Bft)
17.01.2017 23:06 -1,6 C 96 % 1038,4 hPa 0,0 l/m 5,5 km/h (2 Bft) S-SW 202 0 min 0 W/m -2,2 C -1,6 C 9,7 km/h (2 Bft)
17.01.2017 23:09 -1,6 C 96 % 1038,5 hPa 0,0 l/m 6,3 km/h (2 Bft) S 190 0 min 0 W/m -2,2 C -1,6 C 9,7 km/h (2 Bft)
17.01.2017 23:12 -1,6 C 96 % 1038,4 hPa 0,0 l/m 5,3 km/h (1 Bft) S-SW 207 0 min 0 W/m -2,2 C -1,6 C 11,3 km/h (2 Bft)
17.01.2017 23:15 -1,6 C 96 % 1038,4 hPa 0,0 l/m 6,8 km/h (2 Bft) S-SW 212 0 min 0 W/m -2,2 C -2,0 C 11,3 km/h (2 Bft)
17.01.2017 23:18 -1,6 C 96 % 1038,4 hPa 0,0 l/m 6,0 km/h (2 Bft) S-SW 213 0 min 0 W/m -2,2 C -1,6 C 9,7 km/h (2 Bft)
17.01.2017 23:21 -1,6 C 96 % 1038,4 hPa 0,0 l/m 6,2 km/h (2 Bft) SW 214 0 min 0 W/m -2,2 C -1,6 C 11,3 km/h (2 Bft)
17.01.2017 23:24 -1,6 C 96 % 1038,4 hPa 0,0 l/m 7,5 km/h (2 Bft) SW 219 0 min 0 W/m -2,2 C -2,8 C 11,3 km/h (2 Bft)
17.01.2017 23:27 -1,6 C 96 % 1038,4 hPa 0,0 l/m 6,4 km/h (2 Bft) SW 222 0 min 0 W/m -2,2 C -1,6 C 8,0 km/h (2 Bft)
17.01.2017 23:30 -1,6 C 96 % 1038,5 hPa 0,0 l/m 6,7 km/h (2 Bft) SW 217 0 min 0 W/m -2,2 C -1,9 C 9,7 km/h (2 Bft)
17.01.2017 23:33 -1,6 C 96 % 1038,5 hPa 0,0 l/m 6,7 km/h (2 Bft) S-SW 205 0 min 0 W/m -2,2 C -1,9 C 9,7 km/h (2 Bft)
17.01.2017 23:36 -1,6 C 96 % 1038,5 hPa 0,0 l/m 6,8 km/h (2 Bft) S-SW 208 0 min 0 W/m -2,2 C -2,0 C 11,3 km/h (2 Bft)
17.01.2017 23:39 -1,6 C 96 % 1038,5 hPa 0,0 l/m 5,7 km/h (2 Bft) S-SW 209 0 min 0 W/m -2,2 C -1,6 C 8,0 km/h (2 Bft)
17.01.2017 23:42 -1,5 C 96 % 1038,5 hPa 0,0 l/m 5,1 km/h (1 Bft) S-SW 202 0 min 0 W/m -2,1 C -1,5 C 9,7 km/h (2 Bft)
17.01.2017 23:45 -1,5 C 96 % 1038,6 hPa 0,0 l/m 5,2 km/h (1 Bft) S-SW 211 0 min 0 W/m -2,1 C -1,5 C 8,0 km/h (2 Bft)
17.01.2017 23:48 -1,5 C 96 % 1038,6 hPa 0,0 l/m 5,8 km/h (2 Bft) SW 228 0 min 0 W/m -2,1 C -1,5 C 8,0 km/h (2 Bft)
17.01.2017 23:51 -1,5 C 96 % 1038,6 hPa 0,0 l/m 5,7 km/h (2 Bft) S-SW 212 0 min 0 W/m -2,1 C -1,5 C 9,7 km/h (2 Bft)
17.01.2017 23:54 -1,5 C 96 % 1038,6 hPa 0,0 l/m 4,2 km/h (1 Bft) S-SW 213 0 min 0 W/m -2,1 C -1,5 C 6,4 km/h (2 Bft)
17.01.2017 23:57 -1,6 C 95 % 1038,5 hPa 0,0 l/m 6,1 km/h (2 Bft) S-SW 194 0 min 0 W/m -2,3 C -1,6 C 9,7 km/h (2 Bft)
_ Min-Zeit 06:30 13:54 00:00 - 04:42 - - - - 06:30 06:30 04:42
Minimum _ -3,2 C 80 % 1032,6 hPa - 0,0 km/h (0 Bft) - - - - -4,2 C -3,2 C 0,0 km/h (0 Bft)
_ Max-Zeit 13:51 22:18 23:45 00:00 22:39 - - 12:30 13:33 13:00 13:51 22:51
Maximum _ 2,6 C 96 % 1038,6 hPa 0,0 l/m 7,5 km/h
S-SW (2 Bft)
- - 3 min 341 W/m -0,2 C 2,5 C 12,9 km/h
S (3 Bft)
Durchschnitt _ -1,0 C 92 % 1036,1 hPa #0,0 l/m 2,4 km/h (1 Bft) SW - #1:15 h 79 W/m -2,2 C -1,0 C 4,5 km/h (1 Bft)
2017 Cux-Wetter.de -Die Nutzung der Wetterdaten nur mit ausdrcklicher Genehmigung